GFSCGP_2pvu_pres_048.txt.gz
Presure
237 229 226 225 225 224 217 229 217 234 221 226 215 215 207 205 204 205 205 205 207 202 207 207 194 192 196 201 198 201 215 241 226 227 204 208 233 225 214 223 193 197 193 189
233 225 220 218 222 224 226 223 224 224 215 213 211 205 206 208 179 207 209 203 206 209 202 202 200 204 205 207 221 230 223 224 253 252 240 230 223 211 203 199 195 186 192 195
228 226 220 222 222 219 220 217 216 217 216 211 207 221 216 221 211 205 204 200 198 201 200 200 205 204 227 217 215 247 233 222 215 211 203 202 200 200 195 191 193 190 202 209
221 227 227 224 219 223 220 216 218 213 211 209 213 210 211 208 207 206 208 206 216 215 219 228 225 217 206 235 225 215 209 203 201 203 193 192 199 197 194 204 204 199 198 196
223 218 218 220 222 219 220 218 217 219 221 221 222 225 227 219 217 217 219 218 217 220 220 212 206 226 216 211 205 199 202 199 191 195 195 199 206 206 203 199 203 196 190 194
224 229 227 224 225 223 220 219 218 221 221 219 216 217 213 215 218 221 220 216 219 241 229 221 211 207 202 200 198 193 201 205 203 205 203 198 189 188 205 206 215 217 223 225
220 219 219 215 213 214 214 215 213 210 207 211 220 221 217 213 210 209 245 230 219 209 207 199 199 200 190 197 198 199 201 200 195 191 223 234 234 234 234 233 229 208 202 198
193 217 210 215 212 212 213 213 216 220 218 211 204 207 207 237 230 218 207 206 200 195 200 192 192 200 198 197 195 195 214 212 217 217 225 225 229 226 215 206 200 194 195 196
216 210 214 211 218 218 216 208 207 204 204 207 205 207 222 212 204 206 196 193 197 190 194 196 192 200 193 207 209 211 212 215 222 253 243 234 236 212 202 196 190 195 193 190
211 220 223 215 212 176 202 203 208 208 220 232 222 211 208 202 199 194 196 198 192 196 185 194 191 201 203 205 203 206 206 225 234 248 257 219 204 196 191 189 192 193 191 191
209 213 216 214 208 212 209 216 235 216 219 214 208 202 199 196 192 191 188 191 194 189 197 202 206 204 203 209 208 199 209 214 214 206 201 191 188 185 187 184 189 195 205 207
212 211 204 212 208 208 238 209 208 208 210 203 199 196 196 188 188 190 194 193 198 202 203 200 200 200 194 205 211 215 215 208 201 197 192 189 181 181 184 195 204 210 218 230
203 212 209 212 202 220 205 205 208 200 201 193 193 189 188 193 192 196 202 204 202 193 198 199 194 209 213 207 200 210 215 201 197 198 191 187 183 187 198 215 212 223 224 238
206 199 204 202 206 110 113 196 198 194 194 187 194 195 190 196 207 204 198 203 194 191 192 206 199 196 202 202 199 195 211 220 217 194 190 196 191 196 214 212 210 208 238 249
204 207 198 196 202 189 197 198 195 189 187 192 191 191 188 200 198 197 205 196 188 192 199 200 199 202 195 202 211 204 219 215 197 199 204 189 201 216 213 205 212 215 244 221
207 206 195 197 199 197 197 200 194 192 191 196 200 203 216 199 190 190 201 193 188 187 199 192 194 192 200 198 192 204 211 211 207 203 196 205 211 211 206 219 220 233 250 251
203 203 196 194 197 190 195 202 198 195 194 191 197 202 198 201 191 196 199 192 189 198 199 192 188 198 195 199 196 209 220 215 204 198 211 204 219 211 215 213 225 223 256 235
198 202 197 196 195 192 196 199 198 197 199 201 195 201 207 197 192 188 194 196 198 198 195 182 191 194 201 200 203 219 218 222 201 212 204 208 217 215 212 222 233 250 255 249
201 199 200 200 195 194 196 199 201 198 198 200 198 200 195 191 190 198 184 200 192 190 181 180 192 198 192 200 211 217 227 199 212 206 210 215 218 213 224 234 249 260 245 260
198 195 200 201 200 199 198 201 200 201 199 199 200 198 195 188 195 204 196 205 194 189 173 190 193 200 198 204 209 222 202 209 205 209 215 219 215 221 237 250 250 244 255 263
189 205 202 202 203 196 203 204 203 204 201 201 200 198 191 187 200 204 197 192 189 174 190 191 202 194 200 211 223 204 203 205 203 212 221 209 213 231 238 249 246 247 265 271
190 196 190 194 197 192 188 199 202 199 203 205 206 203 198 197 193 186 190 193 180 188 191 202 193 203 210 221 209 201 211 204 215 225 219 226 233 252 272 244 261 249 302 289
194 190 190 188 197 201 179 200 197 198 205 199 190 187 195 182 181 194 190 186 191 192 201 194 209 211 223 219 201 211 210 214 225 219 230 231 240 253 249 243 265 267 283 264
197 192 187 186 187 188 96 196 185 189 197 195 195 196 182 198 185 191 187 193 192 203 204 213 214 236 202 206 205 218 213 227 222 227 241 260 270 249 249 265 304 356 350 411
195 149 186 137 197 133 193 196 199 191 194 197 191 198 197 196 189 191 195 202 211 210 212 240 237 205 212 213 224 215 230 224 232 245 258 249 250 259 264 272 252 258 404 407
187 191 194 195 192 197 190 191 199 201 191 204 199 194 192 202 201 207 211 210 221 241 233 205 206 212 220 225 217 229 229 238 245 253 268 249 261 281 300 351 364 415 412 387

GFSCGP_2pvu_pres_051.txt.gz
Presure
231 228 235 139 236 230 152 232 224 229 230 226 221 207 218 217 222 228 237 225 216 209 207 202 201 196 193 193 199 192 190 191 190 200 216 232 217 213 240 228 219 207 203 202
231 242 238 231 230 227 222 229 231 227 220 217 217 224 232 218 214 210 207 208 205 200 198 197 195 196 202 202 192 196 200 202 205 217 216 213 224 219 211 207 195 201 194 197
238 228 220 222 130 201 216 214 216 225 225 227 217 222 213 209 208 213 197 207 205 207 206 202 203 196 194 201 220 205 226 220 236 230 219 215 208 202 198 200 193 198 201 204
231 225 221 217 217 215 220 223 224 221 216 212 209 209 204 203 206 207 203 202 204 204 200 199 203 209 214 209 236 232 219 221 215 211 204 201 207 196 208 210 205 202 226 229
225 225 217 214 213 215 223 213 211 211 209 210 204 207 205 207 203 201 200 204 205 207 221 212 216 215 213 205 220 215 210 207 201 205 209 203 202 207 218 225 223 228 227 227
222 217 215 215 216 215 210 212 212 211 211 213 211 212 213 213 218 224 219 214 212 214 215 211 204 227 219 210 206 201 202 208 194 203 198 211 216 225 246 269 273 263 235 218
220 214 212 210 215 216 214 215 216 217 217 217 217 217 214 210 209 214 216 214 210 204 218 219 214 206 205 200 204 198 197 208 195 210 211 212 217 218 224 225 222 229 211 203
221 220 224 223 224 222 218 216 216 215 212 209 210 213 219 216 211 208 207 235 223 215 208 208 199 202 206 192 200 194 205 211 208 211 217 212 215 210 204 208 203 202 199 194
216 214 209 211 212 212 211 210 210 211 216 219 215 210 206 207 206 222 216 213 202 208 197 200 204 193 201 185 204 208 204 204 216 198 217 213 216 218 207 197 196 198 190 191
204 208 209 209 210 204 210 218 217 188 157 207 203 210 207 224 216 209 207 205 196 200 197 193 193 200 190 205 203 206 204 210 209 205 200 202 215 213 214 207 194 201 191 180
206 215 213 213 220 220 208 207 207 204 202 198 214 219 211 210 202 202 201 199 195 192 194 194 200 199 202 202 208 200 200 195 202 205 208 207 217 210 210 206 203 195 187 195
202 212 218 208 206 209 211 204 206 229 232 215 211 205 202 202 200 196 198 190 193 196 193 201 201 194 196 195 204 198 199 204 195 188 189 192 215 213 232 209 209 206 199 212
219 209 210 210 210 203 207 206 204 226 221 205 208 208 199 203 190 195 193 194 191 203 201 198 192 197 189 195 197 192 192 192 191 199 196 198 210 226 227 206 202 206 213 222
211 207 214 201 208 206 209 205 208 204 209 200 204 196 195 188 196 195 195 198 205 200 197 198 197 190 191 190 197 190 191 193 196 202 201 207 213 221 209 203 211 210 217 219
207 211 200 212 206 206 193 215 204 205 203 196 196 191 188 188 192 195 199 210 200 197 192 203 197 191 187 198 193 194 178 189 201 194 199 208 218 220 204 209 209 206 216 223
209 195 210 193 208 207 197 205 201 199 200 200 194 193 195 194 188 191 196 202 203 199 188 182 195 182 200 190 191 179 178 195 197 200 205 211 225 233 203 211 213 212 221 223
208 205 197 208 206 193 195 197 197 192 193 198 194 189 189 199 201 199 200 205 207 195 190 199 194 205 199 195 190 180 188 202 195 205 211 223 236 212 207 218 213 208 224 234
198 205 202 205 200 193 200 199 198 193 191 189 189 193 194 197 198 197 198 199 197 190 191 200 200 194 193 193 182 187 200 197 203 211 219 234 208 200 215 219 218 220 234 248
204 205 203 198 200 199 202 203 197 192 195 196 197 197 199 200 200 200 200 201 196 198 192 192 185 194 192 188 189 197 200 204 212 232 236 201 211 221 222 228 226 235 249 255
205 203 198 200 200 198 200 203 199 197 201 202 201 203 206 206 205 209 208 210 184 192 189 179 195 190 189 192 198 203 209 212 238 227 199 211 225 225 218 238 237 249 241 266
205 199 198 198 193 190 200 199 198 195 192 197 192 204 201 195 206 195 191 196 189 195 184 197 190 189 199 203 206 209 227 231 201 202 215 224 230 221 242 239 249 244 264 264
201 206 195 190 193 196 198 186 186 196 199 193 178 190 189 190 192 191 195 192 194 199 195 191 196 201 203 207 215 231 209 203 213 218 222 231 229 237 241 249 238 262 261 264
203 191 194 191 188 189 193 187 152 188 186 187 187 188 195 194 192 198 191 197 193 193 197 200 199 203 206 219 245 200 211 215 218 221 234 203 233 238 249 240 260 262 267 279
198 196 196 193 191 191 195 191 191 192 195 196 192 192 191 198 186 193 195 195 201 193 195 203 208 211 229 222 197 217 212 219 226 234 213 237 240 249 275 261 264 272 278 286
190 110 122 190 190 190 191 188 193 191 199 200 199 200 187 192 197 193 201 201 193 202 208 211 218 240 203 202 214 210 224 227 230 231 237 243 258 242 261 262 272 274 314 397
200 197 196 191 191 196 194 191 194 199 191 198 196 201 198 188 203 212 200 189 204 208 212 230 238 201 207 216 213 224 229 229 244 238 250 258 266 256 274 276 290 355 386 406

GFSCGP_2pvu_pres_054.txt.gz
Presure
243 186 226 228 198 133 237 143 138 239 133 135 134 158 138 131 134 142 138 208 179 159 212 220 216 212 217 214 202 200 194 189 187 189 190 194 188 193 207 221 220 228 221 212
245 228 229 229 219 231 208 226 206 233 229 216 218 224 156 212 203 212 209 210 204 207 205 198 210 201 198 200 203 200 194 193 191 203 204 202 207 235 229 218 212 206 197 199
245 233 223 238 233 190 228 230 227 217 217 225 212 212 209 215 210 217 216 211 206 200 198 204 198 190 201 189 189 191 200 203 200 218 212 233 225 216 209 201 197 205 205 227
223 232 241 228 222 225 223 221 219 227 227 223 219 215 211 217 216 204 208 203 201 195 207 197 195 198 195 201 203 195 208 222 221 208 222 211 208 200 205 212 203 218 223 225
227 247 227 224 219 217 223 222 230 223 224 218 223 229 216 210 208 210 202 200 202 201 203 200 203 201 202 205 218 220 219 223 220 209 208 201 213 200 218 228 224 230 224 221
227 158 194 216 217 216 209 213 213 209 212 214 214 205 202 205 197 199 196 196 201 203 206 210 216 219 216 215 230 223 215 204 200 203 204 203 221 219 214 207 206 210 206 207
228 227 224 216 216 214 213 213 208 208 212 209 206 205 215 198 205 201 214 215 217 216 212 217 215 223 227 219 213 205 194 200 202 206 213 220 213 204 200 199 201 204 219 213
213 218 214 208 208 212 207 209 210 209 209 211 211 211 206 209 209 209 200 209 217 213 209 220 226 213 209 204 197 203 200 211 214 211 216 203 197 194 196 203 197 193 192 209
220 215 223 215 216 214 208 215 215 215 216 211 215 211 209 203 207 216 212 204 210 209 219 212 209 198 204 202 200 197 207 208 205 204 201 201 194 200 194 186 193 205 208 206
225 220 221 215 220 219 217 210 210 206 209 207 204 209 214 215 209 205 221 217 217 209 209 200 210 202 199 199 199 205 204 202 184 202 199 192 190 187 194 199 199 201 202 211
210 204 203 206 209 210 207 208 204 207 210 215 216 211 209 208 216 218 216 210 204 199 210 202 197 199 199 209 202 201 194 198 190 193 200 191 191 191 185 195 202 202 211 213
200 198 201 212 213 210 209 215 223 216 214 211 211 212 204 232 220 213 204 201 199 195 200 199 199 199 208 202 197 198 192 194 193 190 199 187 194 178 177 192 202 206 216 239
208 203 210 204 216 220 217 210 213 213 207 213 202 241 229 205 212 204 202 200 192 198 200 196 191 204 200 198 191 197 191 194 183 200 197 190 191 180 179 202 207 216 245 233
200 206 206 213 216 205 209 211 202 206 207 209 224 215 209 202 198 199 199 191 194 193 194 194 207 206 201 200 197 184 201 197 192 199 193 193 193 176 202 212 213 241 227 204
206 213 206 208 207 209 204 200 204 224 206 205 209 204 200 197 193 198 194 196 197 192 199 200 199 209 212 192 194 195 197 194 193 193 190 192 182 206 211 213 238 211 203 211
199 215 206 211 208 207 198 212 214 206 208 199 201 197 204 204 196 191 191 191 191 197 196 198 199 198 199 196 200 184 192 184 190 191 194 190 207 206 221 233 199 210 222 214
206 214 206 203 208 198 204 209 208 196 197 197 195 194 194 194 192 197 194 198 197 200 201 202 202 203 205 210 193 185 187 193 195 193 202 205 210 228 220 197 213 212 221 229
212 211 207 198 209 198 201 208 205 192 196 197 192 194 197 193 198 199 197 200 204 203 204 204 206 197 183 187 197 196 202 192 196 202 204 209 232 220 203 212 211 224 233 236
212 207 205 199 200 202 198 202 205 201 202 200 196 199 199 198 199 205 197 201 199 187 185 189 188 196 195 196 202 199 199 201 204 205 209 230 213 201 212 204 220 228 237 241
209 206 203 202 198 198 206 200 204 200 198 198 199 198 202 194 193 200 174 181 190 192 195 191 202 193 199 199 199 199 198 203 207 213 237 216 203 208 213 222 227 236 243 250
196 204 205 204 197 202 202 201 201 194 197 205 195 189 188 195 189 186 187 188 188 188 200 194 196 200 195 199 196 189 202 206 224 239 203 206 207 216 221 229 239 244 246 263
154 198 204 197 201 201 202 199 193 196 192 194 193 190 191 191 192 196 193 195 199 201 201 197 195 199 206 192 192 200 206 216 214 205 212 212 212 225 228 241 242 247 266 260
208 197 202 201 195 197 206 187 190 193 190 190 194 193 188 192 187 196 199 194 197 206 195 184 204 199 192 192 201 211 215 214 213 185 212 223 225 233 241 248 252 266 263 274
210 205 200 198 191 203 203 190 194 193 186 192 188 191 190 192 191 185 202 195 203 192 189 202 196 192 196 203 216 218 212 196 215 209 227 229 232 241 244 256 259 266 274 284
208 80 134 195 195 196 188 190 190 189 190 192 196 190 191 189 199 198 199 201 185 192 194 195 191 200 208 210 222 219 210 211 204 225 232 236 241 246 262 260 264 264 272 400
215 209 197 203 195 198 196 198 199 200 199 190 191 192 183 203 192 210 182 191 200 205 192 205 203 206 214 229 220 216 198 222 231 232 237 246 247 264 262 271 265 273 385 409

GFSCGP_2pvu_pres_057.txt.gz
Presure
259 251 248 237 235 233 234 233 228 232 125 154 144 231 141 143 225 219 134 129 133 225 130 136 136 135 214 215 217 229 208 205 199 204 194 198 191 184 192 192 191 194 217 238
166 244 244 211 231 236 237 232 232 181 135 135 231 228 134 201 134 215 135 234 217 212 220 211 225 203 215 203 201 202 198 196 197 200 203 200 196 196 193 196 213 235 222 211
249 246 241 235 233 233 241 234 230 233 229 224 202 142 176 221 217 211 213 204 211 205 205 202 197 203 197 205 202 199 195 187 188 188 185 190 193 200 222 231 218 205 200 207
252 255 242 224 240 237 234 231 224 160 230 223 215 213 222 221 213 202 195 199 204 213 202 201 203 199 198 196 186 189 194 200 202 205 206 205 227 226 219 199 197 225 223 217
239 253 226 242 231 226 226 222 217 221 225 224 223 222 222 218 216 207 207 212 198 202 203 204 199 198 190 195 210 209 209 207 204 209 228 228 216 197 198 204 212 214 209 204
241 231 245 224 225 224 224 210 218 219 216 223 229 223 211 222 221 216 219 220 215 208 198 203 209 210 201 204 205 213 226 223 223 221 213 200 193 211 213 223 207 209 207 198
230 221 237 226 224 219 217 213 212 216 218 220 211 214 209 208 210 206 211 209 204 214 202 210 215 216 220 221 219 215 230 213 206 204 190 196 218 214 225 209 212 203 200 195
217 219 225 231 222 217 220 219 214 216 211 206 209 211 206 207 207 201 210 210 212 216 209 206 219 217 212 229 226 213 198 202 192 200 202 217 211 206 199 198 196 206 199 192
210 212 208 219 215 215 213 217 221 216 214 214 214 218 213 210 211 211 210 211 203 209 218 207 232 229 218 208 202 199 200 195 199 217 213 208 202 204 199 195 191 202 198 188
214 213 221 219 213 223 215 218 209 211 216 215 216 213 212 217 214 206 208 211 215 209 212 218 216 206 200 198 203 198 197 201 212 205 204 201 190 193 192 184 190 197 198 197
229 213 222 219 212 212 215 218 219 212 210 202 211 204 205 211 220 217 211 209 206 226 220 210 202 193 194 196 196 200 210 211 205 201 198 197 188 199 197 190 196 191 195 195
215 203 205 203 210 207 205 206 206 205 207 204 211 216 215 216 205 209 201 210 227 218 207 201 200 191 194 196 193 202 203 206 204 203 195 195 184 192 193 191 184 194 195 206
211 205 203 202 204 202 207 209 211 213 217 218 211 216 204 204 211 241 228 214 214 206 203 196 193 197 194 193 199 201 195 200 201 203 205 207 193 191 191 184 195 201 205 217
209 207 206 211 205 210 204 215 217 210 205 216 203 210 201 245 226 206 208 206 200 198 198 194 193 191 193 195 200 199 200 205 208 215 199 192 191 195 191 204 203 211 221 246
208 207 212 198 208 207 217 214 212 209 207 203 204 206 207 210 206 200 200 204 205 196 194 196 192 197 199 202 205 204 206 212 193 189 194 194 192 204 201 204 207 221 227 212
208 212 195 205 207 214 206 213 209 213 198 211 209 205 222 200 197 196 198 198 198 197 199 199 200 202 202 200 199 188 191 190 195 201 191 201 206 202 202 206 210 220 227 208
207 200 199 210 200 216 205 213 207 195 206 207 205 195 200 198 198 198 197 192 195 195 197 200 199 194 199 191 190 193 195 199 192 190 209 204 201 201 205 213 222 216 205 212
203 205 205 210 203 209 211 207 206 199 204 206 204 199 197 197 199 198 199 200 201 194 198 201 184 187 190 189 188 196 199 184 199 206 204 194 199 205 211 220 221 209 207 212
203 216 213 196 216 209 206 208 202 207 199 200 202 205 201 203 204 203 199 198 195 195 196 188 195 198 192 202 209 206 197 194 207 199 193 197 205 210 216 226 213 205 211 229
208 218 211 216 217 207 206 202 202 196 197 203 199 199 200 193 200 204 191 187 190 191 192 189 193 200 205 196 205 202 193 199 199 194 204 205 204 218 228 215 204 220 237 244
215 217 206 216 215 206 206 208 203 201 197 204 200 198 191 194 194 191 194 197 195 190 190 195 186 203 196 205 190 193 201 199 194 204 206 207 221 228 216 199 222 238 243 249
205 221 228 209 214 193 203 201 204 203 203 199 198 192 188 188 193 188 196 194 199 191 194 186 204 193 193 196 193 194 198 193 203 205 213 224 235 217 199 227 236 242 252 260
210 212 212 206 207 210 202 199 201 201 200 199 200 206 191 194 193 192 193 191 190 199 190 201 202 201 189 193 191 200 208 206 202 218 222 240 227 219 233 232 244 253 263 262
221 214 192 104 213 217 208 200 200 203 192 191 199 193 193 195 199 198 188 196 198 203 200 212 201 197 194 191 197 206 205 208 215 216 225 244 222 231 239 246 258 264 257 259
210 214 215 222 215 210 209 209 200 198 197 192 193 193 196 198 190 198 200 201 201 204 202 201 196 193 189 203 207 205 213 215 217 195 245 224 236 242 249 259 266 270 269 267
222 209 216 217 210 206 202 203 200 197 199 200 200 200 190 196 198 193 190 206 188 193 205 195 194 188 205 206 209 217 216 204 221 250 233 239 245 250 266 270 270 274 283 284

GFSCGP_2pvu_pres_060.txt.gz
Presure
260 255 267 260 255 237 227 239 245 202 226 157 122 123 133 224 174 132 137 134 131 135 207 193 196 131 127 135 127 200 201 192 186 192 218 233 206 204 200 204 198 195 196 197
268 263 257 245 241 230 237 242 230 229 234 175 206 228 210 134 187 134 133 132 150 199 202 206 151 159 226 219 224 221 220 218 208 206 203 200 201 193 190 187 185 188 192 191
245 252 254 245 233 225 231 230 223 230 226 188 228 226 182 199 158 177 241 239 231 183 138 223 207 212 211 214 214 212 216 202 200 196 202 202 199 197 193 197 200 206 223 225
238 231 244 237 234 227 231 233 224 225 227 223 228 227 222 222 217 209 211 156 217 214 216 213 205 201 199 196 201 199 198 197 197 191 189 183 190 192 193 197 205 225 218 202
243 237 238 219 220 235 237 232 224 221 225 224 236 223 216 209 214 210 216 212 209 200 199 201 203 211 194 194 197 192 193 201 193 194 206 206 204 206 223 222 214 200 196 187
248 231 230 230 241 234 232 226 225 225 221 230 234 225 219 217 221 218 217 204 219 209 211 206 213 188 204 207 213 209 210 210 209 206 212 225 213 217 208 198 195 195 198 208
226 230 218 232 220 224 230 225 217 216 220 215 225 217 214 222 212 207 205 207 201 210 210 222 214 210 209 203 206 215 217 216 214 211 225 212 198 194 192 193 204 210 204 196
228 224 227 223 226 221 221 217 217 218 216 218 217 214 211 209 212 211 212 212 209 207 202 203 208 205 208 210 215 209 202 222 211 204 196 200 189 194 210 213 207 205 195 188
212 224 217 216 214 217 221 215 215 214 214 214 212 211 209 207 208 210 209 211 209 211 212 211 206 208 218 205 205 218 208 199 197 195 198 202 202 213 214 208 211 206 198 195
213 218 224 217 216 210 214 223 219 212 214 219 216 212 216 219 219 219 217 218 213 210 212 213 212 210 209 216 210 200 196 191 194 198 195 203 205 202 205 205 211 212 203 201
217 215 220 223 209 214 217 224 230 220 215 213 217 208 212 214 210 208 209 215 212 209 207 204 202 221 221 206 198 195 186 190 192 195 200 203 201 204 211 216 198 192 192 195
292 215 219 217 218 218 203 203 208 206 205 210 212 212 211 214 224 218 204 203 202 210 205 213 220 210 199 200 195 195 195 192 197 199 201 203 206 208 202 190 191 201 195 193
318 214 214 214 207 199 197 205 200 206 212 213 217 230 217 208 214 207 202 202 215 240 232 216 202 196 195 190 189 190 192 195 199 202 202 197 187 190 194 203 196 192 209 205
259 213 215 213 212 205 203 204 210 212 207 219 221 207 218 200 202 208 203 235 227 220 208 202 203 192 190 191 193 193 198 203 204 197 191 192 191 200 205 190 200 205 203 198
233 248 216 212 208 206 202 205 212 207 220 218 211 217 207 202 208 215 219 216 210 203 191 192 193 193 193 194 199 201 197 180 183 193 196 204 210 200 196 198 203 201 206 215
228 255 208 214 209 209 205 208 209 215 217 213 212 198 208 212 206 209 200 200 200 200 198 194 194 196 205 204 193 203 188 191 199 207 198 197 198 202 196 207 196 211 205 220
219 239 241 207 210 201 202 203 198 215 213 210 210 201 206 209 210 202 196 196 196 194 197 198 201 197 201 195 196 188 194 197 199 194 200 199 202 196 204 195 210 203 215 213
230 239 283 207 207 200 203 206 220 206 215 211 205 210 203 206 205 206 203 200 200 202 202 203 202 191 189 194 189 188 199 186 198 195 195 196 197 194 197 208 201 214 215 219
232 231 295 223 206 201 197 214 207 219 215 207 208 203 202 204 202 199 199 201 202 196 207 195 197 202 196 185 194 200 198 201 199 201 200 199 192 198 206 201 215 215 222 237
243 214 288 262 208 200 200 215 221 206 208 209 208 205 201 200 202 201 200 200 195 189 191 196 192 192 194 189 200 205 210 205 203 198 195 191 193 206 207 215 218 224 226 230
208 194 289 270 219 212 200 217 210 201 218 209 207 206 207 205 205 199 199 200 197 190 191 193 197 193 191 204 208 208 196 205 196 195 188 202 207 215 212 221 233 253 231 245
215 182 285 270 244 209 199 213 213 215 211 209 199 204 201 199 199 201 201 201 199 195 200 196 191 200 204 195 209 189 204 201 194 185 205 208 217 221 221 239 228 234 247 246
253 258 280 269 242 214 201 201 223 212 202 210 207 202 199 199 199 191 191 192 198 197 188 190 201 196 193 209 201 204 196 188 197 202 213 224 223 227 255 229 236 248 248 254
251 259 289 272 239 221 207 207 196 209 210 212 215 210 206 204 199 198 198 201 202 194 200 199 203 194 201 202 211 200 182 206 200 213 225 227 226 248 231 240 250 249 255 280
253 274 285 273 243 229 215 203 210 206 212 210 204 205 207 205 202 200 202 195 193 195 192 194 194 202 203 211 194 183 204 213 206 220 228 192 215 234 240 249 254 263 286 272
262 286 278 267 251 230 218 200 211 212 213 207 204 203 206 211 209 203 193 205 192 189 193 197 203 205 206 193 198 204 217 207 224 238 216 225 236 239 245 258 266 286 272 278

GFSCGP_2pvu_pres_063.txt.gz
Presure
270 250 255 257 264 254 237 241 226 231 230 135 120 215 225 128 132 135 135 140 214 134 129 124 128 131 135 133 129 127 192 192 192 198 225 209 195 192 194 192 194 196 204 198
253 246 252 257 243 233 224 224 233 153 236 232 230 163 129 145 166 131 126 129 150 208 132 187 147 193 205 135 206 189 200 186 219 205 201 201 194 195 189 200 201 203 194 188
237 253 241 236 249 229 218 233 178 222 227 123 176 179 235 221 156 131 172 214 149 135 174 198 172 194 196 166 153 194 208 218 225 220 217 217 218 210 201 202 192 191 192 194
224 242 244 234 239 220 222 228 222 223 226 222 226 233 225 172 229 224 220 133 144 209 134 201 202 204 199 202 225 222 198 206 212 209 205 207 206 197 192 192 195 198 201 222
219 249 253 244 226 218 225 230 234 224 226 221 224 225 228 141 231 243 127 168 200 202 201 171 199 196 211 215 211 196 193 194 202 198 200 193 192 194 199 205 214 230 213 210
232 227 207 238 229 230 233 233 229 222 225 226 229 226 229 225 227 230 231 204 232 230 209 216 219 212 212 202 204 203 204 198 205 204 204 209 205 219 226 219 216 207 198 194
245 209 231 219 234 241 228 227 223 224 224 222 222 228 232 222 225 216 219 225 230 237 220 213 215 208 205 203 198 203 206 209 205 202 209 222 217 219 212 203 195 195 195 204
239 226 221 219 221 233 226 227 224 214 215 213 211 214 215 210 214 211 213 211 215 226 216 213 203 215 209 202 206 199 203 203 208 210 206 220 208 202 192 194 191 193 205 203
220 239 217 210 217 211 218 233 217 209 209 208 207 210 208 218 217 221 215 213 218 215 213 212 209 204 204 207 211 211 206 209 205 225 211 201 194 191 191 190 198 203 207 208
218 228 246 221 218 213 218 210 214 211 209 209 208 207 207 208 210 208 208 207 204 205 208 214 214 212 209 211 209 206 203 222 212 202 200 193 191 192 191 196 203 204 197 191
218 226 238 218 216 217 214 211 221 220 219 217 214 210 213 213 219 217 216 211 210 210 205 205 214 213 206 201 202 225 214 204 198 197 192 193 195 194 200 205 201 194 194 193
211 216 232 318 216 214 218 227 221 220 211 211 210 209 209 206 207 207 202 215 216 220 219 213 205 207 208 226 219 206 194 193 192 193 194 196 196 208 189 184 197 191 190 204
208 218 221 245 227 212 212 207 208 205 214 206 204 215 209 215 218 212 211 210 209 211 211 205 236 232 213 206 199 200 195 195 195 194 197 202 203 189 185 189 191 197 190 194
209 211 216 230 267 211 209 209 202 205 204 208 210 210 222 212 198 209 210 197 204 214 205 235 208 206 201 198 194 193 194 196 199 198 200 198 190 184 190 193 199 189 196 197
212 213 217 217 237 242 215 214 209 206 202 204 211 212 222 205 208 204 196 211 209 208 226 203 200 199 199 199 198 195 195 194 198 196 197 188 183 189 193 208 194 198 204 197
212 213 223 208 226 268 209 214 213 213 206 207 207 216 217 210 210 204 204 206 211 213 203 199 197 197 194 199 200 200 202 201 190 194 193 184 193 204 209 195 207 202 197 202
207 205 215 216 219 249 269 218 220 208 230 204 207 206 209 210 206 204 199 202 211 211 210 207 206 203 201 191 200 196 189 191 193 190 188 199 211 200 197 199 205 189 204 201
209 210 214 212 213 232 257 240 209 208 207 205 206 214 210 213 212 201 206 203 201 200 199 198 196 199 194 186 187 189 192 190 184 196 203 202 210 189 202 203 182 204 211 214
212 205 210 214 207 224 214 256 232 211 203 206 219 207 214 216 211 207 202 199 199 201 200 198 198 196 198 192 190 190 194 193 198 203 185 197 209 207 203 182 203 213 214 221
212 209 206 227 227 230 281 265 253 223 205 208 216 219 212 216 211 208 209 207 205 204 205 201 200 200 202 201 201 195 193 201 199 200 203 210 206 194 191 203 215 213 211 235
203 205 213 214 222 232 224 272 262 232 219 211 208 214 216 212 216 205 201 203 204 203 201 199 192 192 193 195 203 197 199 195 193 206 204 205 191 203 204 217 208 223 235 221
183 216 197 189 181 176 186 241 244 251 226 215 206 215 212 218 202 211 210 206 203 204 199 199 200 201 204 201 199 194 194 199 204 210 201 198 205 196 216 208 223 234 230 235
205 215 216 217 230 226 255 217 259 242 238 226 215 207 215 216 216 212 213 218 214 210 211 206 205 203 195 201 203 197 201 201 202 201 184 204 193 214 213 220 227 233 239 237
202 187 201 202 224 227 255 260 262 247 234 227 222 211 206 212 205 209 210 209 204 204 207 211 210 194 193 194 196 203 197 198 201 210 203 203 217 221 216 231 236 242 239 244
159 191 176 229 225 241 248 274 265 252 242 228 223 216 204 205 209 212 208 206 204 204 205 209 208 201 197 202 206 210 207 207 214 203 195 232 222 217 237 237 240 239 243 250
201 221 221 226 221 250 236 284 274 257 245 233 224 219 211 202 206 213 205 208 207 201 206 206 205 206 206 213 214 210 196 209 209 215 220 219 229 241 238 236 239 241 244 263

GFSCGP_2pvu_pres_066.txt.gz
Presure
226 246 268 261 268 256 247 236 238 229 229 236 246 249 241 246 228 132 148 147 131 141 123 127 121 122 129 139 125 126 127 131 122 124 193 193 190 188 190 155 208 199 199 201
224 256 256 252 243 251 233 227 230 234 231 226 240 242 130 247 224 115 217 219 144 131 131 131 131 130 133 153 126 122 121 136 209 208 197 177 181 207 195 209 208 191 195 199
212 259 245 251 247 233 219 221 233 239 234 228 232 232 248 235 157 166 219 184 123 173 130 123 133 131 186 204 206 203 196 148 197 170 192 190 196 212 207 205 201 204 201 200
206 217 239 257 237 231 224 223 228 231 224 229 117 116 141 238 133 218 201 196 205 128 125 134 206 209 143 185 198 148 198 192 194 192 210 210 211 202 204 197 191 190 196 189
193 205 238 219 224 238 223 227 227 230 223 224 224 224 232 139 233 134 230 220 165 216 205 200 123 131 202 204 200 201 197 193 189 178 205 201 198 206 202 204 202 206 206 208
199 198 207 236 227 226 239 236 229 230 232 224 224 220 222 225 225 226 235 235 233 237 220 208 219 210 152 201 204 201 192 204 214 219 200 189 205 202 197 199 201 210 204 209
187 196 209 232 225 222 231 226 229 231 226 215 219 220 222 218 217 219 216 216 225 244 235 224 221 216 213 208 218 193 212 198 204 197 208 209 200 201 199 208 201 196 211 205
200 193 209 222 247 214 215 226 219 222 217 219 213 216 214 218 218 230 213 210 214 209 212 210 213 198 196 219 214 207 199 211 211 206 197 201 205 206 201 198 207 203 200 196
175 194 201 213 228 240 219 208 219 217 215 206 211 212 214 210 211 218 216 210 207 209 213 212 209 207 221 203 202 204 209 203 199 205 202 203 204 195 218 207 200 197 197 198
203 183 196 213 222 268 214 221 217 214 211 209 207 205 210 207 208 210 213 214 210 211 213 212 214 214 213 208 205 202 203 204 204 205 203 200 203 212 203 199 197 195 196 200
184 206 192 199 217 235 223 217 234 211 206 212 211 207 208 214 213 210 209 210 209 210 210 210 215 216 215 212 206 203 204 208 205 198 200 215 207 198 198 197 194 193 201 195
198 204 203 179 215 220 273 219 220 224 223 215 216 223 223 223 220 217 212 210 210 210 211 210 207 214 221 213 205 205 207 204 233 215 204 204 203 198 193 194 202 193 190 190
201 191 177 218 212 215 224 322 216 222 217 210 195 203 190 198 204 210 211 209 210 214 222 225 216 209 206 209 211 229 225 212 205 205 200 196 194 197 201 195 186 190 196 184
202 184 207 195 214 219 214 230 263 215 217 204 202 200 199 204 206 206 219 218 215 213 216 201 192 205 241 240 217 205 207 206 202 202 203 203 206 206 195 194 193 186 191 202
208 189 200 212 213 215 216 216 244 239 219 207 207 197 205 199 202 209 214 210 211 212 205 215 209 203 218 206 198 199 195 203 201 201 200 205 193 190 189 193 187 195 202 192
194 196 200 209 225 209 211 228 219 298 225 212 208 206 223 223 201 216 210 212 214 209 209 201 203 214 204 202 202 203 202 200 199 191 190 189 193 190 197 194 199 199 198 203
170 200 164 206 211 220 203 210 218 227 272 213 208 207 209 207 214 207 207 209 209 206 211 210 207 208 205 204 199 201 202 199 196 198 200 197 198 196 193 194 198 194 207 195
189 201 181 205 212 222 215 214 213 226 284 255 213 207 210 202 206 205 209 203 208 211 207 203 202 201 201 201 202 199 195 195 195 198 200 194 189 195 197 193 196 202 201 204
197 165 202 204 197 212 211 218 206 222 248 271 250 233 208 207 208 217 218 204 209 210 209 205 203 202 202 201 200 196 195 194 192 190 192 199 198 195 193 201 195 200 198 204
197 205 195 208 210 209 197 209 207 229 216 208 267 249 225 212 206 208 215 215 218 219 216 207 205 202 203 201 199 197 195 195 198 201 202 192 195 200 197 193 205 214 203 208
199 195 206 213 209 208 200 206 217 221 228 268 204 219 242 223 212 210 204 216 209 220 200 206 211 210 209 208 206 205 206 206 205 211 194 187 204 213 204 205 209 205 215 224
201 181 172 207 209 216 207 216 189 204 238 237 269 273 252 239 224 216 211 206 209 206 218 215 213 210 212 211 205 203 203 212 212 211 206 212 204 205 205 208 209 215 222 225
203 170 210 210 197 217 211 219 204 222 229 235 263 273 265 245 237 228 223 213 208 206 208 205 200 203 209 209 205 204 212 211 208 201 210 201 204 204 208 212 213 218 226 225
198 184 202 163 181 168 210 179 187 230 234 225 249 255 270 255 240 230 222 222 218 209 202 204 208 212 213 210 210 210 209 210 214 201 199 204 207 209 210 215 225 230 232 245
205 194 213 161 164 162 204 205 219 211 222 236 252 248 282 269 253 241 226 220 219 215 210 206 204 205 203 204 201 211 213 213 199 200 205 207 212 210 218 225 228 238 245 241
216 215 219 171 210 183 207 199 220 217 218 230 253 237 221 278 269 257 243 231 225 220 215 214 213 211 211 207 211 214 211 215 210 210 216 219 213 221 227 231 245 242 252 235

GFSCGP_2pvu_pres_069.txt.gz
Presure
190 195 195 272 269 257 243 243 239 231 232 234 237 245 259 257 112 129 119 137 224 137 243 214 190 124 133 116 115 222 121 126 126 133 132 127 125 125 134 135 201 196 195 193
198 188 195 219 269 248 230 228 232 229 225 229 236 244 256 206 181 163 138 149 221 219 212 136 203 149 214 125 123 126 125 125 133 140 150 152 154 133 131 149 209 199 208 209
202 188 207 207 247 254 240 227 227 237 244 234 229 236 235 248 183 228 227 219 218 131 173 196 118 129 130 130 131 121 156 130 129 218 162 178 163 202 201 197 193 211 208 198
180 189 198 217 228 242 252 239 231 228 225 223 231 229 235 234 245 223 224 222 216 122 214 214 127 123 124 167 125 132 134 167 200 189 202 162 200 200 202 181 194 211 208 199
186 191 187 207 216 234 225 228 239 232 230 218 221 229 234 233 242 246 232 224 136 201 208 205 157 135 153 138 203 131 200 202 133 126 195 199 187 199 202 207 212 210 191 193
181 196 184 207 208 216 241 217 233 229 234 232 223 221 221 227 232 236 237 226 235 220 214 207 209 183 201 202 201 202 150 155 200 195 198 197 192 190 210 206 196 209 209 206
183 198 200 202 199 212 228 224 220 220 227 218 222 215 218 224 230 223 227 232 236 237 212 213 215 211 206 204 202 206 208 207 201 215 207 202 215 213 207 208 203 200 208 204
195 201 179 206 190 211 219 237 211 214 221 219 216 220 213 216 217 219 220 224 214 215 212 213 214 218 213 219 218 217 220 214 213 210 210 206 195 199 211 203 204 204 203 203
193 189 187 172 207 199 220 261 222 216 223 217 218 214 214 206 207 214 213 214 220 224 225 212 210 207 204 204 206 211 216 220 211 204 205 212 212 206 203 203 202 196 197 205
182 188 201 190 203 215 214 220 237 215 219 217 217 213 214 206 206 211 210 212 214 219 222 221 218 218 221 218 215 214 213 210 207 207 208 208 203 202 202 196 194 213 195 202
185 196 200 197 194 210 214 216 229 234 206 222 208 210 214 214 210 206 208 208 208 210 212 213 215 217 215 216 212 209 207 203 205 199 202 204 199 201 196 206 210 199 196 197
195 196 197 208 179 208 216 209 217 252 222 204 227 223 222 219 215 215 216 218 219 214 213 215 217 215 216 207 201 203 208 208 210 210 203 201 201 225 209 198 202 199 199 201
188 193 195 195 188 203 208 214 211 217 252 222 208 212 214 201 225 195 197 195 198 205 206 209 212 214 214 218 213 206 203 203 199 201 207 226 204 202 203 198 197 200 204 194
197 198 189 203 208 187 200 222 222 207 221 268 228 208 210 201 210 205 203 202 211 210 207 220 222 206 211 207 198 199 200 209 231 227 214 199 196 188 198 200 195 189 191 190
194 172 200 200 204 188 203 212 218 202 211 220 268 256 210 215 206 210 203 200 205 210 214 211 210 214 209 203 209 210 202 206 221 206 205 205 203 202 200 204 201 200 204 199
197 200 197 192 197 203 194 210 214 217 204 207 221 278 271 214 214 210 211 210 200 201 203 207 209 209 210 206 201 203 205 206 205 201 195 195 200 201 198 195 201 198 198 201
198 195 206 187 199 207 188 205 212 216 209 204 219 226 273 256 220 209 211 203 205 209 217 214 203 208 210 208 205 202 203 201 197 198 202 206 207 202 202 200 198 202 195 186
194 203 208 206 209 199 201 180 206 213 215 210 208 222 224 273 247 225 211 204 203 201 213 212 208 204 208 206 210 211 211 210 211 210 206 203 202 200 200 203 203 197 208 200
217 208 214 207 199 189 201 208 212 210 211 233 207 214 229 222 267 244 228 217 207 202 205 211 213 214 209 210 209 207 205 205 204 203 203 203 204 203 203 200 208 206 208 198
213 209 205 200 200 188 203 206 218 199 212 190 208 216 209 233 255 191 246 235 224 213 208 203 203 207 208 213 210 196 194 197 202 205 210 210 208 204 195 212 201 208 201 192
204 198 200 202 202 197 199 205 216 195 206 222 209 219 211 198 209 263 285 256 224 214 218 214 210 202 202 203 214 210 204 205 204 194 208 210 207 205 215 213 207 199 196 212
201 203 197 205 195 194 198 208 204 211 205 224 224 213 208 226 222 247 252 284 265 246 233 224 216 210 206 205 205 203 205 205 205 205 207 208 203 209 210 199 201 212 216 217
189 205 202 198 202 195 200 175 200 205 174 211 221 220 213 232 223 232 259 249 281 268 248 238 231 224 217 217 214 211 205 205 205 204 205 205 215 212 202 204 212 219 208 215
193 185 195 195 203 198 200 174 152 155 163 176 227 234 220 223 222 211 254 235 294 280 273 264 245 235 229 222 210 214 215 216 216 215 216 220 217 215 222 209 216 212 227 231
198 197 199 204 204 194 200 211 219 219 169 164 228 229 216 233 212 199 240 199 219 208 235 237 249 261 260 249 239 227 222 225 226 226 227 225 225 224 194 230 231 233 239 231
202 203 210 207 220 217 214 220 172 227 162 231 222 215 163 163 203 225 247 243 259 197 211 225 230 240 263 259 255 259 255 248 244 240 238 238 239 220 235 237 237 232 232 249

GFSCGP_2pvu_pres_072.txt.gz
Presure
187 181 197 188 199 251 224 242 234 237 234 239 238 242 250 244 237 219 237 220 133 216 134 161 229 207 235 135 131 212 215 213 225 126 129 146 142 136 123 125 131 138 126 141
188 189 180 190 182 224 242 227 233 238 246 236 227 235 240 259 188 119 221 231 216 210 153 223 216 129 232 140 129 203 151 184 123 120 130 136 193 130 130 133 133 200 199 187
181 183 189 189 185 199 236 221 240 237 235 237 236 233 240 255 267 228 117 121 168 137 140 128 213 232 127 203 233 221 210 134 127 119 123 128 171 133 133 165 162 205 201 200
181 196 187 190 196 188 226 240 219 240 235 228 225 229 226 240 255 242 221 229 153 143 140 213 221 228 228 208 146 212 119 124 207 127 116 124 189 146 128 199 201 186 192 201
181 195 185 180 196 203 190 234 225 231 234 241 231 222 225 227 235 247 231 224 224 213 218 217 220 131 122 166 216 133 138 125 131 198 217 202 189 140 193 200 204 213 205 199
194 180 182 195 179 195 197 226 241 219 224 233 234 227 225 220 219 235 248 168 219 218 213 220 213 148 145 210 207 205 192 156 205 207 205 200 198 198 197 199 194 214 195 211
184 183 180 194 203 191 203 218 227 231 215 206 229 231 221 221 224 222 219 233 231 240 215 217 212 210 211 204 204 206 206 200 193 193 197 207 204 205 209 210 216 207 213 201
185 171 179 191 178 201 183 216 221 247 223 213 216 230 223 220 220 223 226 219 220 226 230 230 238 216 203 199 209 210 214 213 218 217 214 213 215 211 203 206 206 208 206 209
179 188 182 188 185 199 192 209 218 226 240 211 211 216 233 215 218 214 213 213 212 213 218 220 217 216 219 222 217 217 213 210 206 204 210 210 208 208 215 220 220 206 202 203
188 176 181 179 195 196 197 210 217 217 223 241 213 210 215 211 215 216 216 216 212 208 209 210 217 222 223 221 221 222 220 220 216 213 211 209 209 209 207 207 206 208 203 200
195 183 177 185 192 178 198 204 198 213 214 222 231 218 218 220 212 210 218 220 219 214 213 212 212 214 214 213 211 212 213 214 212 208 205 205 206 208 209 212 208 196 195 215
182 182 174 186 195 182 195 204 201 203 220 211 233 233 225 209 221 217 215 202 222 227 223 217 203 205 205 204 203 202 203 205 206 209 215 212 207 204 205 207 202 227 223 194
189 184 181 194 180 179 193 196 204 202 214 212 215 217 256 224 210 208 201 194 200 209 204 207 208 210 213 212 213 214 210 208 206 205 198 197 200 198 204 222 230 204 195 194
187 180 168 191 191 187 196 197 203 188 203 214 203 214 225 252 251 210 206 205 200 197 201 209 211 211 213 218 216 202 203 206 203 198 199 203 222 230 214 212 202 201 197 196
186 193 181 190 194 186 182 186 195 185 196 210 210 208 209 220 282 274 218 213 209 203 209 219 211 207 207 221 212 206 210 207 201 202 199 200 202 203 201 200 196 196 199 197
194 181 186 188 195 190 180 198 199 195 188 199 208 201 214 212 218 233 270 229 208 209 204 202 206 208 209 210 208 202 206 208 206 208 206 200 200 198 199 199 200 200 199 198
185 194 175 192 195 185 188 194 208 202 184 199 207 215 209 209 209 229 227 268 251 227 209 202 205 205 201 199 211 211 203 204 203 205 204 202 200 200 201 198 196 197 199 203
187 186 191 192 193 178 193 191 215 206 199 199 204 207 214 214 212 202 226 229 276 256 240 227 217 210 207 204 199 219 208 211 212 209 206 204 205 201 196 194 198 200 203 202
187 198 195 187 189 177 197 208 213 191 175 202 204 202 204 194 200 213 201 236 217 256 267 249 234 225 221 214 210 207 205 205 204 203 201 207 211 210 208 204 204 202 202 202
196 190 193 196 208 203 207 210 207 201 201 196 207 204 181 219 193 222 194 203 227 179 245 257 273 249 233 202 216 213 212 210 208 203 204 204 204 206 204 203 203 205 204 196
197 192 207 209 210 207 205 206 200 201 201 206 191 206 194 214 220 222 200 218 217 226 217 251 259 279 267 249 237 230 220 219 216 214 212 214 215 213 212 212 213 215 214 204
222 223 212 212 205 198 196 195 200 202 198 197 203 211 208 209 199 222 179 213 225 199 172 217 240 264 286 268 257 245 236 231 226 225 224 221 221 205 215 216 220 217 216 217
215 200 202 202 198 196 201 204 194 200 202 201 202 198 210 204 211 216 223 223 195 212 211 202 250 225 217 229 232 190 243 247 247 251 258 256 243 199 236 236 236 235 236 244
190 206 198 205 197 207 202 202 201 194 198 198 202 152 162 198 209 172 165 190 207 172 204 196 244 255 249 218 211 210 223 222 222 221 235 265 264 263 256 254 257 257 251 246
208 206 194 200 202 199 193 196 194 193 196 201 208 219 208 219 224 166 223 196 214 234 215 223 227 236 246 230 230 240 242 227 239 259 257 263 262 263 260 255 248 245 248 251
198 200 200 195 192 191 199 197 191 195 205 210 209 205 221 214 227 227 164 220 220 213 214 219 220 231 236 230 229 237 231 261 255 258 259 264 260 241 231 237 258 266 259 250

GFSCGP_2pvu_pres_075.txt.gz
Presure
189 197 184 196 186 196 201 248 231 235 236 235 236 245 248 262 251 228 218 212 222 220 221 217 231 129 207 203 191 130 137 139 144 196 136 212 203 198 135 123 121 122 134 171
191 202 184 194 182 194 201 199 237 237 238 249 235 231 246 252 253 248 221 222 224 217 212 215 133 155 118 191 212 182 207 213 195 151 134 185 199 193 188 183 120 125 166 122
187 201 194 188 187 186 199 213 244 223 241 237 237 235 234 237 256 238 212 217 217 212 221 134 201 167 162 199 186 208 163 211 171 131 136 159 124 189 186 144 123 122 125 131
183 195 177 193 181 180 189 198 212 243 224 239 237 229 232 228 232 262 228 226 236 128 112 210 154 124 145 218 147 212 143 181 201 188 192 120 199 134 121 127 187 176 142 145
184 190 194 192 183 179 191 203 204 246 231 217 247 239 229 234 232 232 237 227 222 229 224 177 124 122 122 242 127 242 208 214 213 133 124 123 204 133 205 202 146 208 213 208
185 185 191 187 176 186 190 205 188 224 250 222 212 233 233 226 226 230 256 225 224 220 194 187 120 210 218 223 219 223 218 239 219 233 212 218 169 217 173 196 212 201 194 196
197 185 194 185 184 189 194 200 208 217 240 240 214 212 224 228 224 230 229 244 233 223 218 217 218 221 218 215 217 223 219 211 212 215 203 204 212 208 198 201 202 201 206 207
204 189 184 183 191 176 182 197 206 206 219 234 238 213 207 221 223 219 222 228 235 252 229 225 225 213 218 216 204 209 207 210 206 209 208 203 206 210 207 216 218 214 212 207
184 190 176 168 168 177 187 187 193 185 185 224 235 234 215 213 211 212 211 211 212 226 225 224 227 231 234 232 239 217 212 212 214 210 226 226 220 217 211 208 210 210 212 213
187 194 175 184 173 179 177 186 190 199 214 201 224 238 232 220 223 217 208 211 213 213 211 210 212 216 219 220 219 216 211 211 209 210 209 210 210 209 209 207 206 206 206 206
189 188 196 179 180 178 175 188 184 181 203 209 217 222 245 234 210 215 220 218 215 218 217 220 218 215 215 215 215 214 212 210 205 204 204 208 210 212 212 208 204 207 213 208
193 191 186 190 186 186 177 187 180 201 199 210 206 218 221 228 241 209 216 211 209 201 199 200 202 205 201 203 210 211 211 209 205 205 204 205 206 213 214 215 210 202 201 207
191 186 170 176 177 192 178 189 180 179 200 200 208 201 222 214 220 264 237 220 217 213 209 206 204 208 202 209 207 208 213 210 216 218 220 211 205 210 211 205 204 193 210 231
175 190 176 177 187 182 188 189 187 186 184 199 195 199 193 214 213 212 227 287 246 221 216 216 213 211 203 220 204 203 203 208 210 216 211 209 211 212 209 205 203 204 204 206
197 191 175 193 178 173 166 174 190 181 190 179 205 202 186 200 214 208 213 222 245 281 268 219 220 218 213 209 210 216 231 218 217 206 204 204 203 203 203 203 205 207 204 200
196 171 189 189 188 188 174 189 191 181 196 182 191 211 201 189 197 216 204 207 225 230 239 268 253 229 221 218 214 214 206 204 206 208 208 208 211 207 205 207 199 198 197 195
185 180 187 179 184 190 182 184 185 191 189 187 192 208 205 195 202 210 218 214 210 209 209 229 238 270 250 235 225 223 218 211 207 206 205 211 213 210 199 203 204 203 201 199
195 192 183 177 196 198 128 180 185 191 192 192 196 212 206 206 194 207 200 210 214 229 212 209 228 225 233 263 221 256 215 225 222 219 215 210 210 210 208 207 208 206 204 201
197 189 195 190 191 176 188 185 175 177 188 205 199 214 207 197 200 205 206 210 207 203 231 209 197 231 238 223 248 267 293 259 238 226 223 218 215 213 212 210 211 208 206 207
198 195 201 200 199 186 176 187 194 186 177 209 210 208 200 197 206 180 206 196 206 207 220 230 210 209 234 221 231 216 258 288 273 252 239 230 226 225 225 222 223 225 226 228
201 203 201 202 194 182 178 192 190 181 186 209 212 200 193 198 198 196 199 214 209 198 213 179 216 225 204 230 209 215 245 242 237 245 250 249 246 246 246 245 243 237 237 233
196 201 186 196 191 176 189 196 185 194 211 210 209 198 195 197 199 196 201 207 210 214 205 220 220 229 175 234 211 195 235 247 249 243 228 232 214 211 222 240 224 218 236 241
212 196 192 194 189 187 183 177 197 214 212 207 197 196 198 195 200 199 204 206 185 213 215 214 200 229 225 215 211 212 212 202 228 239 246 229 228 248 231 239 268 264 272 261
213 210 205 205 196 194 196 201 216 208 210 198 200 197 195 198 197 190 152 205 215 210 215 222 201 170 171 206 228 210 224 221 206 224 234 236 237 268 220 269 277 273 267 267
214 211 207 203 198 201 214 214 202 201 200 197 202 185 196 197 192 199 200 208 216 217 217 156 230 224 221 234 227 212 205 215 224 232 244 233 232 217 240 244 239 248 246 246
213 210 211 211 217 218 216 211 192 193 202 198 198 197 196 193 196 204 199 218 211 204 153 212 226 225 218 206 216 219 208 206 223 235 235 245 244 237 247 255 249 250 256 249

GFSCGP_2pvu_pres_078.txt.gz
Presure
189 182 198 193 203 188 193 190 202 209 238 247 250 245 248 255 262 270 233 262 235 232 218 224 243 226 208 226 238 202 218 205 203 204 209 203 198 144 195 134 130 135 164 200
190 181 182 196 202 181 185 197 212 209 247 237 239 241 242 248 254 115 229 219 218 217 220 220 231 223 215 225 210 234 166 142 131 154 195 201 187 211 194 202 173 124 126 178
208 188 196 196 193 187 192 188 191 199 252 238 232 237 241 242 254 243 242 220 219 219 214 222 185 221 217 132 134 133 204 217 205 203 166 205 146 205 201 193 205 204 190 140
206 195 194 188 191 186 191 182 190 211 204 248 226 239 233 234 245 265 213 237 210 209 211 213 206 223 221 215 211 201 203 150 159 201 207 190 119 181 212 176 146 192 186 192
185 176 184 189 187 197 185 191 178 204 221 258 234 221 235 232 235 246 253 235 240 206 226 210 203 130 122 161 218 127 153 199 208 205 211 195 121 125 192 192 192 130 195 193
192 186 195 189 194 196 180 179 185 197 211 218 256 222 225 232 226 228 241 245 234 229 223 229 172 156 206 203 165 219 185 178 188 201 207 210 211 214 207 207 212 204 203 204
192 192 194 179 195 193 180 179 192 188 205 195 224 255 216 225 220 224 222 242 242 230 227 224 223 162 210 219 173 218 203 228 234 220 220 195 194 195 194 198 202 199 217 206
185 172 196 186 193 188 184 179 175 185 197 202 220 225 243 223 220 212 213 219 223 249 227 224 220 235 214 208 207 214 212 220 218 213 210 212 220 219 220 215 211 196 199 209
194 185 197 178 194 188 184 184 181 176 195 198 187 209 218 246 214 225 219 213 213 217 221 256 229 224 224 221 213 211 226 217 213 209 206 213 216 216 213 213 208 199 229 222
195 192 199 179 189 178 184 189 178 183 186 188 203 192 217 220 243 221 213 209 212 213 214 213 214 227 226 222 236 233 231 231 168 239 236 225 218 219 225 219 211 213 213 212
196 194 187 196 183 190 190 176 180 180 175 186 191 200 213 215 221 243 225 216 214 213 214 216 218 213 209 217 211 209 216 217 219 221 221 221 222 217 216 214 213 213 214 210
200 189 194 184 187 189 175 191 179 187 178 186 184 199 204 183 205 227 219 248 223 223 215 223 218 216 218 222 213 225 222 215 212 209 212 212 213 205 209 209 209 217 219 206
202 211 202 188 193 185 175 199 179 192 184 189 191 186 186 205 213 199 210 220 215 286 273 228 216 208 204 205 205 201 206 204 204 225 218 219 204 217 218 220 218 211 206 209
197 204 196 184 189 193 182 185 179 189 179 188 190 194 185 191 203 211 203 203 220 213 220 265 290 271 234 219 221 216 204 219 217 221 201 205 223 211 205 215 219 210 206 206
198 223 205 185 188 189 183 171 181 192 191 192 182 192 195 185 190 210 208 195 202 219 216 213 221 234 267 277 258 247 236 208 235 224 232 209 201 219 216 218 206 203 207 206
197 205 210 198 187 188 175 176 173 178 191 179 192 193 187 188 192 203 210 199 190 199 202 222 233 210 209 213 223 238 261 263 214 247 226 231 228 224 222 221 220 224 221 213
198 194 173 188 187 185 189 186 185 176 188 189 176 188 191 194 192 206 213 200 204 188 208 202 218 233 238 208 229 214 224 240 228 273 279 266 254 242 235 231 227 225 224 222
206 205 213 198 185 193 182 169 183 186 187 193 190 181 192 190 193 211 211 206 180 200 192 205 207 214 221 219 232 200 221 246 228 230 231 237 278 262 252 245 237 234 228 226
206 205 220 197 200 188 178 110 169 176 182 193 188 187 184 194 190 211 212 206 201 198 203 177 205 225 217 215 209 200 229 212 221 239 218 224 246 247 232 233 238 240 230 231
210 207 204 203 201 184 178 179 186 187 179 196 189 186 183 192 187 207 213 203 194 200 207 196 194 209 223 165 220 222 172 165 233 199 240 222 224 223 232 235 237 241 242 242
211 212 201 205 204 198 177 180 184 183 184 194 182 181 186 177 190 212 211 204 198 194 193 204 203 199 212 191 223 176 228 230 177 229 205 230 219 213 217 222 206 230 236 243
214 215 211 203 196 191 183 196 199 193 193 195 185 184 187 180 211 210 208 199 192 192 198 196 198 201 207 210 217 205 221 227 179 226 222 230 222 211 212 208 240 235 231 229
208 210 209 207 201 190 193 190 191 193 194 196 175 202 180 185 213 209 201 196 198 197 198 201 172 199 200 219 214 164 223 226 230 226 167 218 222 222 223 215 220 236 225 219
213 214 206 209 208 206 201 195 195 197 195 198 195 189 181 194 210 210 200 199 201 201 192 193 193 185 205 218 212 153 222 222 230 229 223 223 212 210 216 216 202 211 226 245
217 215 205 197 201 206 207 206 199 193 194 196 193 197 187 214 202 202 199 197 200 193 200 195 216 203 222 223 215 222 168 227 229 228 213 223 216 215 221 234 226 240 241 224
217 207 211 208 209 209 206 205 204 202 200 202 186 178 208 213 202 194 194 198 200 187 200 209 190 213 222 167 215 224 226 219 228 227 225 222 215 222 217 231 230 222 236 243

GFSCGP_2pvu_pres_081.txt.gz
Presure
169 191 188 221 192 194 209 191 192 201 192 204 256 265 257 256 232 239 218 272 270 282 317 215 195 194 177 126 173 190 124 124 170 189 193 184 191 199 190 187 198 185 190 195
205 184 212 194 189 200 198 189 187 193 192 213 240 244 249 249 269 266 279 235 244 246 274 227 213 209 221 193 199 185 210 179 195 200 189 184 193 182 154 184 195 194 193 187
176 206 193 167 207 202 172 193 190 186 188 214 231 254 252 247 240 272 262 253 240 245 228 215 227 199 231 266 217 217 205 202 193 152 125 182 198 199 153 130 172 202 205 129
202 204 172 166 199 191 196 193 189 185 186 191 214 260 231 249 238 239 259 256 248 230 236 234 233 214 215 244 227 236 226 214 141 123 123 126 211 226 216 207 205 123 188 207
216 210 177 168 188 184 194 199 188 184 185 194 219 225 244 243 246 238 241 251 251 235 218 241 219 221 228 219 222 215 216 213 217 230 223 201 193 209 198 190 126 184 127 184
213 226 198 208 198 190 191 190 191 182 184 192 205 216 232 231 235 232 229 239 247 239 247 218 210 210 219 176 111 118 125 190 192 212 222 223 211 211 206 127 133 167 208 194
225 216 207 196 163 180 192 180 189 178 181 184 193 218 222 235 215 228 230 229 231 241 234 235 238 209 202 203 180 122 181 195 159 125 126 161 174 174 207 201 203 196 207 204
230 216 204 206 213 194 203 188 195 182 181 182 182 219 208 232 232 233 228 226 229 240 239 232 231 225 235 224 221 223 213 202 229 210 218 221 231 199 201 201 198 202 201 200
165 198 200 206 209 195 203 198 194 183 180 183 184 201 214 200 229 263 248 238 223 223 223 243 235 220 222 229 236 214 208 207 210 200 212 213 210 218 220 222 208 211 215 221
221 224 211 201 199 203 187 188 195 184 188 179 182 182 199 212 210 225 230 239 224 223 213 216 219 226 242 242 232 233 220 226 215 211 215 226 225 221 216 223 210 208 205 204
219 232 218 209 206 202 175 187 192 191 181 184 183 183 190 193 205 195 217 220 225 237 230 226 211 215 216 212 215 220 219 218 219 218 214 220 222 234 230 216 218 217 214 217
245 229 221 210 217 203 192 185 189 177 191 181 182 186 183 202 189 206 214 214 212 223 217 230 248 228 214 219 219 218 218 221 218 212 218 223 235 215 196 223 225 227 236 217
243 249 229 214 215 204 198 191 187 190 189 177 178 183 183 186 186 191 199 208 218 204 212 223 219 223 323 237 205 202 207 197 207 219 222 208 201 204 205 205 201 212 210 206
251 259 234 212 212 188 192 179 186 195 184 195 185 193 183 182 194 197 193 194 215 193 203 203 210 218 224 224 249 285 245 217 215 216 209 205 213 208 213 218 205 210 217 217
259 254 220 210 208 204 194 186 188 193 191 194 186 176 185 199 180 188 188 192 210 211 206 195 201 202 211 225 220 213 212 229 238 248 245 242 235 223 214 202 218 232 219 217
259 267 216 213 206 211 199 200 192 190 187 183 186 178 196 173 188 187 194 193 207 211 209 203 207 196 195 216 198 229 234 244 236 218 225 214 226 224 221 218 217 226 257 251
263 270 213 212 211 213 213 182 183 192 189 185 189 176 186 189 178 178 191 196 190 210 217 212 199 198 202 190 179 225 218 206 201 233 197 237 234 224 199 240 225 218 231 249
276 221 216 211 210 211 198 187 181 192 190 189 178 185 189 191 198 193 179 189 195 185 215 214 207 210 204 205 203 199 210 209 221 228 207 229 241 236 239 237 238 216 210 218
270 216 212 213 215 213 206 188 178 192 186 189 188 190 190 186 194 196 190 183 200 189 210 213 209 205 204 200 203 209 195 194 212 227 220 221 177 155 175 235 219 229 234 228
258 222 216 222 212 194 206 189 179 179 182 192 192 194 185 179 187 198 192 192 188 190 210 212 211 204 200 199 205 203 166 202 197 212 183 216 227 229 227 160 234 231 213 218
256 220 211 212 211 209 203 182 191 178 188 140 191 186 187 188 192 196 195 187 187 191 194 212 210 200 202 198 199 198 184 205 190 212 227 220 151 187 221 227 233 232 226 217
233 222 217 213 206 210 209 197 204 193 181 158 188 183 188 185 188 195 196 191 197 185 191 213 208 205 197 201 203 174 183 201 206 230 220 211 213 192 228 224 220 227 228 226
227 211 214 211 205 206 202 206 213 183 200 198 188 178 188 197 195 185 195 195 190 178 195 213 212 202 199 198 196 192 203 209 213 229 222 218 216 222 222 225 227 224 226 230
227 223 213 215 209 210 212 210 197 203 201 200 183 194 189 190 189 196 198 189 187 192 194 213 207 198 198 194 183 194 205 209 204 219 223 217 219 224 226 228 230 232 231 230
237 221 218 211 212 210 208 209 212 203 200 193 197 195 193 190 186 195 196 192 196 192 191 212 210 198 197 201 198 203 212 197 212 222 218 215 223 229 233 230 234 238 225 237
240 218 216 219 219 215 208 209 212 209 210 207 206 204 199 196 197 191 195 200 193 201 211 212 208 197 204 206 198 210 208 192 215 226 220 221 231 235 237 236 233 227 240 230

GFSCGP_2pvu_pres_084.txt.gz
Presure
208 162 216 206 207 179 174 198 191 202 176 200 188 194 265 258 258 276 266 216 255 213 211 218 258 176 215 173 172 175 210 172 168 186 181 165 182 189 180 172 213 174 173 181
199 166 200 172 180 169 186 170 201 187 193 197 191 194 211 244 264 258 270 216 219 285 212 219 184 240 191 163 174 177 182 184 188 190 128 184 181 172 184 181 184 177 179 176
166 202 170 218 178 190 176 188 195 196 196 193 189 186 214 254 241 250 255 278 242 210 258 245 282 214 171 185 197 195 192 184 179 170 179 172 168 172 161 125 169 175 173 184
154 182 199 160 200 191 214 168 200 197 197 197 190 192 218 242 233 256 249 260 256 273 230 261 275 282 201 201 189 213 197 184 191 163 164 171 175 145 174 165 128 167 116 166
156 186 154 197 207 196 212 169 181 185 184 195 193 192 196 219 244 237 243 245 258 254 245 236 221 257 194 192 203 198 183 177 178 196 170 123 175 131 188 173 187 185 188 189
205 187 194 196 203 191 129 168 183 188 197 192 192 192 186 211 233 238 236 245 267 243 257 243 241 230 242 203 197 193 196 192 194 203 190 190 200 173 190 195 200 194 182 216
191 203 207 229 212 204 208 214 184 195 200 192 190 186 182 214 200 230 238 238 248 261 248 245 250 239 238 245 220 209 202 206 112 118 121 123 126 184 228 164 188 191 220 216
209 198 212 200 220 223 214 139 201 168 174 194 191 184 184 186 212 222 256 222 234 244 243 277 247 219 225 222 227 223 222 219 220 228 227 219 245 233 222 231 206 208 209 214
213 210 206 208 216 231 214 219 195 203 192 196 193 180 179 181 212 221 242 230 227 233 225 233 261 250 235 247 238 221 217 214 216 233 217 214 220 213 218 213 228 212 219 224
235 227 219 224 217 223 214 211 211 213 198 194 191 183 188 182 190 212 219 220 223 225 221 227 225 222 240 247 231 224 227 232 235 227 216 216 215 217 216 209 214 222 235 227
223 230 223 240 223 215 198 211 205 195 201 206 191 190 185 186 186 187 211 206 216 213 217 229 241 224 228 218 217 225 236 240 234 227 235 225 218 225 225 225 219 213 216 218
228 239 226 233 215 215 218 195 209 203 186 194 190 187 189 191 192 183 187 202 219 221 214 214 213 218 268 250 226 222 220 226 224 223 219 227 229 228 212 196 218 204 198 226
243 237 240 237 226 222 215 234 209 199 196 182 192 191 182 181 179 179 191 199 198 218 226 210 207 211 216 217 218 287 258 232 216 215 212 211 216 215 207 208 194 193 232 188
269 271 282 257 245 239 250 251 211 203 202 194 189 196 187 181 183 187 180 192 191 196 199 217 211 193 200 202 210 217 226 214 242 253 241 242 249 228 248 252 202 204 189 207
257 269 289 267 258 255 251 243 214 207 201 196 189 200 188 187 188 190 184 186 182 192 197 217 222 215 197 199 201 199 200 223 235 227 219 214 217 216 206 216 211 205 197 200
273 263 226 268 249 246 229 251 213 205 212 203 196 195 194 194 184 179 185 170 183 181 192 191 201 220 219 211 191 197 190 191 180 214 200 206 202 228 211 215 213 211 212 214
262 270 267 215 259 251 233 227 212 210 213 201 186 187 191 193 189 179 180 192 175 178 190 192 187 183 217 222 217 207 197 201 200 194 197 193 198 203 201 228 232 223 232 240
270 273 272 253 247 262 262 219 210 205 207 200 190 188 194 190 189 195 172 188 200 198 180 186 191 190 190 214 214 213 210 206 203 211 203 206 203 211 193 245 193 196 158 160
244 276 275 268 248 260 275 207 217 204 199 206 191 185 195 193 195 179 192 197 189 198 192 191 194 191 193 192 214 214 207 203 206 201 204 200 197 205 221 208 228 227 222 191
265 295 281 272 251 252 228 217 209 212 192 204 196 189 187 190 191 190 191 189 173 193 196 182 189 181 188 193 194 215 213 206 199 202 200 193 193 205 208 215 216 221 218 221
272 237 244 269 252 261 219 214 215 217 191 174 197 193 188 197 193 191 191 196 190 192 193 197 184 192 179 190 195 201 216 209 203 203 195 193 203 202 215 204 215 220 227 216
274 275 260 259 249 269 218 212 211 209 208 123 117 199 185 185 193 194 193 186 191 187 192 192 187 197 192 186 194 191 211 211 196 196 201 196 206 205 211 210 213 218 228 217
297 301 277 249 249 241 218 215 205 203 198 213 210 198 195 195 180 199 194 181 188 190 199 192 192 197 182 193 193 193 208 212 213 208 200 197 198 207 206 212 212 216 223 223
277 265 262 274 260 228 221 211 209 212 204 220 212 204 206 201 194 196 192 180 185 190 188 189 192 198 188 192 198 194 212 210 214 204 205 196 204 211 205 208 214 217 219 221
303 286 258 262 250 226 212 206 206 208 208 217 212 196 194 205 204 194 192 190 192 191 192 190 197 193 198 203 208 203 214 207 211 208 194 205 191 208 204 213 212 221 216 221
274 265 252 257 241 220 212 213 208 216 210 209 219 208 192 211 201 201 199 197 193 191 197 201 199 199 204 206 205 210 215 207 208 203 204 212 209 211 213 212 223 218 219 226

GFSCGP_2pvu_pres_087.txt.gz
Presure
187 199 191 227 203 209 215 193 187 198 180 205 193 198 212 204 223 261 246 283 270 246 202 197 185 177 161 183 188 173 177 179 182 169 167 160 174 169 157 168 163 184 175 166
197 190 198 197 196 174 216 219 175 180 191 193 185 195 206 202 224 245 236 267 287 306 232 197 188 185 172 187 180 176 184 181 194 164 160 162 160 138 163 149 175 169 173 187
202 184 198 195 190 203 180 216 170 187 193 167 189 191 201 201 210 227 240 260 269 287 228 219 204 191 181 178 179 159 168 171 172 173 159 158 161 171 172 180 174 185 189 168
196 184 193 202 163 167 194 194 176 184 198 175 183 197 183 207 197 210 247 249 257 288 279 238 248 198 187 172 172 181 182 174 166 164 172 173 190 172 176 183 184 172 128 163
190 190 202 197 169 167 194 192 177 187 214 183 171 174 185 204 190 215 229 236 254 276 269 242 267 277 221 225 189 184 175 181 172 187 170 190 160 171 170 168 176 182 172 173
211 197 188 194 195 165 203 200 208 215 193 173 191 185 190 196 194 210 225 241 233 248 282 257 254 222 244 208 222 208 185 171 175 178 169 179 168 165 171 180 174 170 170 172
192 195 191 198 200 188 157 170 183 208 221 230 187 195 193 189 201 197 208 237 255 240 243 259 263 261 237 234 224 257 215 229 239 224 182 177 188 193 150 124 164 183 187 183
198 190 196 196 195 202 205 211 196 172 217 235 212 165 191 182 196 196 193 227 284 227 228 235 267 250 259 237 219 231 237 237 236 235 230 234 201 205 204 188 187 190 191 190
204 202 197 200 192 201 199 212 213 210 219 228 213 184 182 192 188 191 187 217 242 246 239 225 231 237 266 249 226 236 227 234 204 200 186 207 209 199 181 185 194 189 202 209
212 204 194 194 203 208 211 185 224 231 218 223 212 189 182 180 190 190 187 186 214 218 235 245 223 227 236 247 261 236 242 253 245 234 190 191 211 194 202 236 228 226 223 218
202 203 194 199 198 200 212 223 224 214 224 216 214 198 187 182 194 187 181 187 186 172 219 226 230 237 225 229 231 241 253 257 252 251 242 244 240 231 226 247 236 230 231 236
221 212 214 215 211 218 214 221 226 227 230 203 209 205 194 176 196 186 188 177 195 184 221 220 227 226 224 262 246 233 231 232 235 238 240 240 234 231 229 223 224 224 225 213
238 238 229 230 232 231 224 241 230 223 216 209 212 188 197 189 188 189 188 188 185 185 194 217 223 206 224 223 218 220 220 223 258 260 256 257 246 222 217 217 220 213 216 203
245 252 237 238 221 224 220 213 211 212 221 218 206 195 169 188 185 188 188 180 185 187 189 190 199 225 222 207 210 212 212 211 219 233 238 237 216 214 228 217 223 242 222 203
286 291 296 301 279 270 255 239 244 223 228 222 211 206 199 183 177 198 188 180 185 179 194 189 193 194 215 222 211 198 204 204 199 198 191 203 215 228 208 202 214 204 202 196
300 307 311 292 279 274 263 256 244 247 241 209 217 213 199 192 185 194 186 188 188 183 186 185 174 193 192 187 212 217 216 212 204 193 198 196 196 180 193 193 195 194 213 211
334 286 287 287 253 259 264 272 260 249 260 243 218 219 208 192 178 184 190 186 189 187 182 178 182 182 191 193 191 185 207 216 220 217 211 203 184 197 201 202 203 186 208 193
276 286 275 285 265 254 215 252 262 266 260 247 242 222 207 192 187 190 191 189 189 183 183 193 177 187 184 187 195 195 201 192 199 209 214 205 205 202 200 201 202 198 193 207
259 264 275 293 279 242 258 256 252 252 248 239 234 220 201 201 199 189 189 196 188 191 191 180 194 194 192 190 183 194 184 194 198 197 201 208 216 203 202 201 196 190 192 205
266 262 272 264 177 278 246 228 247 251 251 234 233 218 203 208 191 183 200 195 191 188 189 192 196 186 186 191 185 183 192 187 192 192 198 192 201 212 212 209 208 201 195 191
277 258 273 277 282 276 258 241 226 264 231 163 235 218 208 206 189 201 194 176 199 196 197 195 193 190 185 182 196 195 193 197 197 192 194 195 190 208 209 213 214 204 208 194
271 263 265 272 271 299 266 253 239 256 236 239 222 134 207 204 190 203 202 197 199 199 199 193 196 183 191 185 201 196 193 194 194 190 192 203 203 200 216 212 211 210 202 206
267 286 278 279 272 259 261 254 247 249 254 234 225 215 210 199 201 205 201 186 169 175 203 203 198 180 187 187 192 191 190 191 195 180 203 208 208 210 216 214 214 215 217 221
280 261 261 295 286 261 274 259 243 250 251 232 221 216 214 208 189 201 203 199 201 185 189 192 191 185 189 191 191 192 191 194 204 200 204 205 202 210 206 213 212 206 218 214
278 271 270 271 276 282 270 261 248 239 251 232 214 212 210 210 204 197 206 207 211 195 211 200 195 195 194 196 198 194 195 204 204 206 205 207 201 203 191 207 212 206 217 222
268 284 270 271 265 288 265 255 241 239 252 232 217 214 214 212 205 203 210 202 211 196 194 207 202 199 200 198 191 197 210 204 205 203 208 201 187 213 213 210 203 211 226 224

GFSCGP_2pvu_pres_090.txt.gz
Presure
190 198 193 194 214 192 199 187 204 221 194 189 192 196 189 188 198 202 208 237 253 261 260 216 196 156 184 182 174 161 168 164 181 189 172 179 178 174 151 124 174 182 165 161
199 195 193 198 211 188 184 193 201 186 199 191 183 180 216 196 194 197 202 222 243 258 263 222 210 187 192 170 173 178 164 164 177 173 185 168 192 183 193 152 177 187 162 156
202 189 195 193 190 197 188 196 198 205 197 207 168 190 192 191 198 195 197 217 235 242 256 293 234 204 184 186 186 187 170 170 180 180 173 180 162 179 169 178 156 193 120 164
206 196 193 199 205 204 201 199 193 191 196 183 183 183 205 179 192 198 199 214 230 238 245 267 295 216 197 180 182 188 179 165 190 173 169 180 168 182 164 164 169 164 162 163
197 198 196 209 195 212 194 202 177 201 192 205 185 208 205 193 202 199 197 200 226 230 247 247 270 218 252 204 186 173 190 197 188 167 182 170 173 161 163 167 171 178 177 182
206 203 203 206 191 208 203 198 168 177 176 190 191 182 193 189 191 201 185 195 223 225 253 243 277 265 238 186 199 174 191 179 180 170 166 179 170 179 168 169 189 163 178 174
213 202 200 219 196 202 186 196 199 175 194 194 167 180 177 232 194 201 181 185 207 224 264 237 245 257 269 249 226 191 171 193 181 175 180 177 171 164 171 159 170 170 164 147
217 209 214 190 197 199 196 194 209 166 189 201 189 172 218 220 167 189 177 186 188 217 232 228 236 237 267 259 229 257 228 189 176 192 199 172 176 177 183 172 175 170 173 172
215 229 197 198 196 208 198 188 198 198 205 203 195 199 206 222 200 189 191 194 171 213 222 239 230 231 235 270 246 257 239 247 186 184 196 189 186 180 187 177 178 179 178 171
212 215 201 205 189 200 196 199 203 213 199 190 198 188 211 223 207 188 194 186 186 181 216 216 237 227 228 232 253 265 260 235 241 250 241 229 244 230 208 227 210 198 182 221
214 211 202 205 196 192 196 202 210 205 199 199 201 200 157 226 195 182 196 187 173 192 195 198 215 221 231 237 225 231 241 252 255 239 239 250 244 242 235 230 227 231 200 198
216 214 210 204 197 198 206 204 199 201 206 201 215 197 179 230 186 197 191 191 183 194 181 192 193 215 219 225 228 269 224 226 232 234 235 237 234 235 236 238 238 241 241 240
227 218 218 210 212 207 212 195 200 205 211 218 211 190 217 233 189 188 192 182 186 196 192 189 188 191 217 204 216 219 226 229 227 228 235 245 278 288 291 237 223 225 219 222
238 243 227 220 213 216 207 210 210 213 216 218 223 211 205 221 197 190 189 189 186 195 193 192 194 196 185 229 207 202 201 212 218 218 219 224 229 229 231 228 235 237 231 229
248 247 244 240 237 226 224 223 223 225 230 238 224 222 204 208 204 196 190 191 181 188 184 188 190 197 190 194 204 225 222 222 221 190 205 197 200 201 202 210 213 210 210 210
293 298 276 261 238 226 226 237 241 236 231 233 246 208 205 203 196 194 189 182 185 191 187 190 184 192 199 190 193 194 193 215 220 222 222 222 220 208 203 202 199 205 194 206
326 316 287 296 291 286 257 242 238 241 236 238 244 237 201 217 219 190 196 187 170 193 177 195 192 193 190 185 187 182 187 189 191 190 189 206 209 212 216 217 212 201 193 190
299 303 310 313 300 289 197 285 276 275 272 270 269 259 195 221 211 204 198 190 195 181 185 185 191 192 198 181 179 184 194 191 196 198 203 200 197 199 200 196 199 203 210 212
156 286 287 288 275 300 297 282 292 287 297 292 276 259 231 231 218 219 197 192 188 192 184 189 194 184 170 191 191 185 188 185 182 194 181 187 198 197 196 198 196 198 195 203
505 305 283 273 307 279 259 292 292 287 287 279 269 255 244 213 220 220 202 197 191 192 189 189 178 192 190 187 186 183 189 188 184 190 194 192 194 191 194 173 197 194 207 207
336 300 291 284 286 299 272 281 285 219 256 266 273 255 248 233 229 221 226 201 190 191 190 194 193 198 193 177 183 195 200 177 191 183 191 197 193 190 192 194 187 193 203 204
309 285 267 258 259 274 281 266 241 205 263 260 266 259 259 244 242 240 224 203 194 191 200 193 188 199 185 196 202 210 203 193 188 188 183 187 189 189 188 193 200 199 206 205
351 275 273 269 259 274 265 261 283 270 261 268 271 263 251 249 239 239 221 215 196 202 191 202 193 190 193 203 206 189 191 178 181 184 184 190 191 192 192 197 201 204 202 208
360 280 268 258 268 260 264 254 271 278 261 270 255 247 249 236 235 227 224 226 206 202 204 191 201 199 177 207 180 186 191 191 192 193 195 194 187 193 193 204 203 205 201 210
335 296 274 267 259 262 274 289 254 287 268 252 245 238 248 236 240 244 225 220 211 210 210 209 198 186 189 192 192 182 174 202 199 198 195 197 194 194 201 200 206 204 210 206
334 310 269 272 273 276 271 243 228 281 267 253 248 252 246 242 236 243 225 221 211 207 203 205 213 201 199 199 201 209 215 197 202 200 194 192 197 201 202 204 206 205 206 211

GFSCGP_2pvu_pres_093.txt.gz
Presure
205 187 187 151 184 203 196 198 184 210 188 190 178 194 190 189 188 197 217 207 204 207 253 270 241 206 193 193 185 190 185 177 168 193 169 182 169 167 173 124 167 189 169 185
192 197 178 184 198 193 197 196 188 190 207 185 194 198 191 188 184 190 195 212 199 203 236 241 269 220 210 195 181 201 191 170 167 195 171 162 165 163 161 177 170 194 178 166
208 207 194 192 179 195 200 194 193 191 211 185 180 181 195 187 179 200 243 197 205 206 215 254 261 259 205 193 193 192 185 188 168 185 167 179 165 166 168 175 153 167 164 189
206 206 198 209 194 204 198 195 199 205 211 201 178 185 200 201 177 189 212 224 204 200 204 246 258 271 238 201 192 177 183 172 190 191 180 197 161 175 166 177 164 178 182 176
214 212 196 209 203 189 195 198 197 200 202 203 179 183 185 187 194 204 222 223 198 198 199 216 258 262 264 201 184 194 158 184 181 176 192 176 169 174 172 167 183 174 190 175
199 207 208 200 188 206 196 201 207 200 204 190 184 176 184 193 186 208 168 208 199 199 192 221 254 251 260 252 204 190 188 181 179 188 193 173 175 187 179 160 162 179 179 169
204 202 197 208 201 200 207 203 203 200 204 179 186 192 163 147 178 206 218 224 199 193 193 209 243 235 269 258 255 212 190 190 182 187 174 169 169 185 181 175 164 164 173 169
208 221 201 190 212 206 206 207 214 215 220 184 174 182 163 159 199 203 211 213 195 189 198 188 224 242 239 251 260 252 234 199 188 176 176 175 184 175 174 175 195 169 171 181
218 220 199 223 221 208 207 211 199 216 188 194 189 189 168 193 201 189 209 171 203 179 194 181 211 222 240 234 239 267 258 243 191 211 194 176 177 170 186 185 169 167 172 171
217 203 223 214 217 221 214 213 211 196 198 198 182 186 175 180 179 204 191 222 207 186 194 191 179 211 226 245 230 234 257 247 243 236 223 199 183 204 190 183 182 183 187 189
223 207 213 223 219 225 222 215 219 202 201 214 193 192 177 182 199 169 203 216 208 198 196 181 191 194 210 228 230 235 227 231 258 257 240 240 224 222 205 196 177 168 177 190
216 101 194 212 208 219 219 216 230 210 228 218 202 194 185 180 151 188 193 208 209 192 190 184 179 187 206 217 221 228 227 245 225 228 241 252 253 250 249 246 240 243 251 252
233 128 169 217 221 215 215 212 215 208 222 211 208 183 193 177 194 197 197 209 213 197 196 187 184 188 182 198 221 197 214 224 228 231 234 236 239 239 251 234 237 246 238 237
242 211 230 216 214 215 213 213 202 221 203 207 201 192 183 179 202 200 201 207 217 197 196 188 193 170 190 191 200 205 215 205 208 211 218 220 221 221 229 229 234 229 224 228
252 250 240 229 222 222 219 210 213 211 211 215 194 192 187 188 193 193 211 211 212 196 194 191 192 187 190 192 195 194 193 216 214 223 198 201 201 198 210 214 211 212 212 212
239 236 238 239 231 227 226 224 221 214 218 216 210 192 192 200 195 200 218 222 209 203 197 199 194 189 181 185 185 187 194 192 192 195 213 213 218 222 223 219 221 220 223 223
269 246 253 241 248 244 238 232 238 233 226 221 221 215 209 212 196 205 227 222 202 202 199 191 197 201 181 191 196 195 196 187 182 185 189 189 187 189 192 193 191 198 199 200
292 284 278 262 251 250 237 227 238 240 242 244 245 239 231 227 216 227 221 227 194 204 199 191 192 191 190 186 192 194 199 200 186 181 181 196 195 194 193 183 192 195 192 196
145 234 283 301 258 253 245 252 248 246 244 244 240 231 232 230 232 235 217 223 205 201 206 200 186 198 183 181 186 183 190 189 209 200 190 187 186 192 192 193 188 187 192 195
139 135 292 293 312 320 317 315 295 284 282 285 290 290 245 235 235 224 228 234 228 224 207 193 200 189 194 192 186 187 190 191 188 166 185 183 187 184 182 187 183 187 197 193
291 312 313 298 297 210 295 302 304 141 297 290 289 286 280 277 270 255 251 258 216 206 214 203 194 199 191 193 196 198 192 186 195 188 187 191 194 189 185 183 186 185 183 184
322 330 388 410 374 284 277 283 287 291 291 287 293 304 298 280 276 263 251 259 255 235 213 211 201 193 200 193 200 189 195 191 194 207 195 203 201 200 193 187 179 188 190 196
315 333 353 336 313 306 273 265 235 261 261 310 271 291 286 282 274 263 258 258 247 241 224 230 206 201 194 200 199 200 196 205 212 190 182 184 213 189 193 196 198 193 199 197
308 338 313 303 292 284 294 265 258 285 276 264 290 288 278 269 262 257 253 246 248 231 227 222 212 205 202 195 200 191 200 172 190 176 172 172 197 181 177 180 191 198 203 195
300 315 305 292 283 273 271 269 284 272 280 292 268 287 275 259 259 253 251 247 241 238 228 220 229 211 210 203 203 202 200 199 178 171 167 199 198 193 201 205 199 191 202 206
283 297 287 278 268 272 278 291 284 255 268 285 272 269 269 256 252 250 248 245 248 234 235 234 231 221 215 209 192 196 193 184 198 189 192 193 200 204 207 204 205 196 203 191

GFSCGP_2pvu_pres_096.txt.gz
Presure
223 226 211 155 199 200 189 202 194 198 181 204 194 190 197 199 202 188 195 196 197 196 199 211 248 263 212 198 179 214 192 204 194 189 164 175 180 170 182 167 138 194 189 171
225 216 166 198 206 210 197 196 186 199 204 205 189 193 195 205 211 192 191 193 184 241 206 213 237 241 259 194 203 194 200 186 192 180 189 180 181 188 178 190 169 178 164 140
214 206 217 207 205 200 203 189 192 187 189 209 178 178 178 200 179 193 192 164 221 236 220 203 224 278 293 199 199 182 195 186 190 182 168 180 184 175 176 164 163 168 153 167
223 210 216 214 204 197 197 197 196 183 199 208 179 175 191 203 191 186 198 189 186 242 210 199 214 258 255 288 199 183 180 190 188 193 186 168 189 179 179 181 162 162 173 135
221 215 219 211 204 195 203 189 198 209 202 212 185 175 179 204 185 182 193 195 210 234 217 214 209 244 245 307 282 201 185 189 183 187 174 190 171 161 196 180 166 187 163 161
234 218 228 217 204 203 208 201 200 201 203 200 194 201 184 201 192 188 184 200 201 217 221 210 201 228 243 247 269 199 199 191 192 182 191 169 187 177 172 169 178 182 169 158
234 223 241 214 197 210 205 202 205 200 209 199 195 204 194 188 180 188 186 178 194 217 224 199 184 211 241 236 284 247 198 196 186 189 182 185 180 180 172 171 179 183 172 171
231 227 222 209 215 213 209 214 216 197 204 201 205 210 189 185 186 183 153 174 140 207 226 202 195 199 225 242 239 271 268 202 185 187 189 185 170 178 174 171 188 180 164 170
233 225 221 216 221 215 204 200 212 201 206 201 207 203 189 196 187 195 177 156 161 169 227 213 194 183 206 222 239 241 262 225 201 180 183 184 186 184 169 176 181 176 173 171
236 223 215 171 214 207 217 204 204 205 216 217 208 214 199 194 194 183 178 187 185 199 210 202 197 197 185 202 224 237 236 267 226 196 191 180 178 180 180 181 184 178 180 175
191 184 215 216 216 205 216 209 218 220 196 211 210 200 204 184 191 187 193 206 193 185 205 220 210 200 196 183 209 227 237 235 262 257 242 229 193 188 182 178 181 185 183 180
246 226 222 218 216 213 208 206 217 199 211 224 214 201 197 182 194 186 210 186 178 189 200 211 210 193 191 191 190 207 224 230 240 241 253 254 247 239 233 228 192 188 187 176
253 236 223 219 217 209 225 214 212 201 215 222 226 209 191 186 193 198 187 186 193 185 199 197 213 198 198 185 190 189 200 213 227 252 233 226 225 227 231 235 234 230 230 233
256 240 239 229 224 227 220 208 215 219 222 229 220 220 190 191 178 195 202 199 190 182 193 199 213 202 200 192 187 192 191 200 219 209 207 231 226 225 230 237 241 233 233 234
252 250 235 230 231 228 220 225 210 226 201 221 216 227 188 208 201 193 199 189 196 195 198 193 207 212 199 198 197 183 196 188 192 227 195 211 205 195 196 201 202 201 214 216
287 242 245 245 224 219 218 225 219 217 219 216 218 223 223 194 204 201 196 192 190 203 200 188 203 218 204 199 193 192 187 194 190 196 195 195 224 222 223 223 223 224 225 221
314 277 249 243 248 241 233 227 226 222 215 216 224 213 199 202 207 205 201 197 190 195 195 193 200 224 210 194 196 192 187 196 190 186 195 192 194 196 193 196 196 194 194 195
247 307 281 251 253 248 236 243 236 234 224 223 224 216 206 199 208 203 199 195 200 198 212 193 200 209 224 210 203 198 192 182 183 189 197 203 190 186 186 184 201 202 194 200
288 303 151 278 288 252 246 239 237 244 251 247 219 226 222 208 206 200 197 201 198 204 210 200 218 219 209 216 207 207 196 190 188 192 193 195 206 201 201 198 187 185 191 194
283 293 306 251 271 282 289 267 254 252 254 247 240 233 232 227 228 218 218 203 203 205 211 216 231 224 216 217 209 204 202 201 188 192 185 191 181 185 182 166 184 191 191 197
230 277 287 305 150 213 261 277 152 242 243 244 250 251 246 242 246 235 239 244 234 229 232 233 228 218 214 218 210 207 205 202 202 199 193 192 195 203 195 176 187 207 199 192
275 270 153 136 284 288 294 188 274 290 92 257 255 248 248 245 245 244 243 237 233 226 223 218 220 219 215 209 204 205 204 204 197 201 198 191 194 189 175 182 178 202 184 190
307 285 293 290 289 287 275 287 284 285 301 311 305 248 252 162 252 282 280 275 281 272 258 236 249 227 241 206 205 199 207 202 196 195 200 202 201 175 203 205 194 169 176 196
311 311 315 327 341 329 347 290 275 146 269 300 319 283 305 312 327 303 289 275 273 268 263 256 250 254 248 245 214 215 211 204 203 198 201 205 201 204 202 183 198 199 176 199
290 305 298 245 313 325 312 305 299 277 276 271 288 287 308 295 284 298 291 293 277 265 255 242 244 244 243 243 220 213 177 208 206 205 204 195 203 200 194 192 198 192 181 187
283 290 287 310 297 289 290 295 293 278 271 259 263 269 282 288 277 275 275 279 273 259 253 243 239 249 244 237 222 224 218 225 205 206 208 208 189 192 197 181 178 200 200 198

GFSCGP_2pvu_pres_099.txt.gz
Presure
340 318 299 248 242 239 214 215 220 213 209 205 200 190 194 193 190 189 194 201 202 197 208 192 197 210 230 224 209 196 194 229 209 208 212 216 208 185 181 214 164 164 191 180
335 301 262 243 255 243 214 200 209 202 200 198 177 188 195 184 191 196 203 190 203 193 202 209 230 207 231 295 213 181 181 222 195 203 201 173 208 196 197 214 172 172 158 146
315 292 293 239 247 240 223 215 210 209 203 203 191 196 190 190 189 188 193 197 192 176 190 203 224 202 219 282 214 207 198 198 200 187 175 214 188 190 177 176 166 165 181 180
317 280 276 236 259 227 216 206 209 202 210 72 197 200 177 188 188 187 195 191 193 191 193 215 233 205 209 267 292 202 189 204 207 192 190 191 194 184 177 178 179 175 176 161
303 269 276 240 245 233 218 215 212 211 208 214 201 172 182 193 186 189 180 197 191 194 145 204 236 210 201 249 280 202 184 193 213 187 183 181 183 179 178 179 179 180 182 182
302 265 280 264 236 239 222 206 207 209 203 219 185 200 197 180 187 189 181 198 191 190 198 211 239 212 205 234 234 249 193 187 189 182 188 195 172 180 170 164 162 163 169 157
305 288 265 254 238 222 217 214 205 214 205 194 201 198 201 196 186 194 194 197 193 197 200 200 239 209 192 218 250 274 274 193 182 183 182 197 190 178 178 179 172 175 165 176
128 299 265 243 242 229 223 214 213 213 205 212 200 201 203 192 190 197 198 193 188 185 172 188 217 226 190 215 234 248 290 215 189 183 183 183 195 181 182 194 167 166 171 184
273 281 257 244 227 234 231 220 207 213 210 204 217 204 202 194 196 204 203 192 188 188 164 135 192 232 209 199 209 240 251 275 232 183 183 182 181 177 193 183 204 180 200 194
306 290 264 238 229 238 230 229 212 223 207 211 203 208 202 197 196 200 204 197 189 188 189 177 158 189 213 184 201 217 239 250 270 225 185 183 183 182 174 186 180 174 175 173
303 288 271 141 245 242 232 230 209 227 223 208 214 210 208 197 196 200 197 196 204 197 193 184 175 162 222 178 192 202 223 238 235 273 237 187 183 182 181 174 173 182 182 173
301 299 93 252 238 232 226 217 214 243 209 199 200 213 207 219 202 198 196 203 193 214 192 186 190 183 224 207 199 195 204 225 229 233 276 247 211 192 189 179 182 182 180 168
139 299 270 257 248 237 227 229 221 216 221 236 202 204 201 197 217 203 206 193 198 201 197 194 187 196 206 218 192 205 190 199 227 227 235 250 269 258 195 190 188 188 185 182
308 285 281 260 253 247 240 225 226 215 220 211 212 212 220 204 196 208 205 198 190 196 202 179 190 208 198 216 208 188 200 194 190 218 222 228 239 229 243 256 256 255 255 253
310 307 291 264 262 249 237 234 225 224 212 223 210 214 217 216 202 211 207 197 200 197 191 207 198 199 203 215 219 204 197 199 197 192 191 231 218 219 230 235 234 235 233 253
303 311 289 272 257 257 245 237 231 220 224 217 205 214 208 200 211 219 221 190 207 193 200 189 194 197 199 193 202 226 201 202 199 197 199 193 201 196 211 227 222 214 208 203
332 306 315 283 260 251 261 242 231 229 228 219 227 213 204 211 209 213 223 216 199 197 198 193 205 195 198 184 208 197 221 201 202 197 193 191 190 186 192 193 199 211 208 203
350 293 314 294 271 261 248 246 238 233 225 225 231 225 219 215 228 220 225 227 223 208 196 210 205 193 197 181 193 205 215 214 199 203 198 187 190 195 190 197 191 188 184 181
342 288 301 311 286 262 251 251 248 238 225 227 227 228 233 211 238 207 217 214 225 214 199 191 206 214 199 200 197 215 195 209 215 202 194 202 195 183 183 185 201 208 206 199
340 284 292 310 279 284 257 253 257 237 225 234 230 217 225 226 218 224 211 213 214 219 207 201 215 205 199 200 197 213 196 211 227 217 203 202 192 200 194 194 188 184 182 186
344 284 277 219 304 261 293 261 254 254 251 246 240 226 134 215 221 194 221 219 212 214 213 189 194 163 205 200 196 202 215 211 219 221 217 207 196 199 191 199 201 198 200 197
329 284 274 274 283 298 310 295 277 258 251 249 250 250 240 233 231 228 225 202 218 220 205 202 202 202 218 221 198 218 230 227 225 215 210 215 216 205 202 197 196 190 193 176
298 280 278 275 277 291 158 166 255 283 280 275 259 253 244 242 194 238 241 245 243 226 226 224 225 225 223 231 238 231 226 237 221 211 211 205 213 203 213 206 203 200 192 194
307 275 274 270 276 190 161 293 302 307 257 259 274 277 289 296 264 262 257 254 248 243 242 238 238 237 236 237 234 230 221 215 220 223 212 205 202 204 206 199 185 173 189 204
294 307 287 295 273 274 268 264 273 283 289 291 279 266 247 253 262 219 250 249 253 255 241 237 238 236 239 253 249 257 254 244 231 233 229 232 226 217 219 214 210 203 204 198
290 295 303 306 313 319 336 317 306 316 279 279 281 286 283 248 284 297 310 304 289 281 282 256 261 285 255 269 261 256 250 250 244 234 237 235 194 231 222 214 217 212 201 196

GFSCGP_2pvu_pres_102.txt.gz
Presure
220 220 223 229 227 250 246 358 324 262 217 214 222 232 198 192 202 186 184 184 194 184 210 210 209 211 191 217 260 219 214 220 247 193 181 199 207 179 177 190 171 176 185 193
215 234 216 232 240 252 268 338 313 235 228 232 218 226 195 197 197 186 188 188 195 193 203 206 218 200 215 212 242 214 212 211 222 241 194 191 179 193 187 185 175 191 183 167
228 235 210 254 255 238 344 314 290 244 224 238 233 231 206 193 196 182 170 196 191 188 192 199 203 208 221 223 201 283 213 213 209 215 226 215 209 211 193 188 195 195 195 168
238 233 237 250 242 255 344 298 248 242 248 226 234 227 203 197 198 183 185 192 197 194 193 197 196 203 194 235 202 257 210 209 198 181 206 215 197 211 193 210 215 200 177 172
238 234 247 235 263 362 330 293 270 236 250 239 229 227 203 200 144 188 190 181 186 184 188 191 208 201 198 235 207 217 306 209 206 202 191 204 199 199 211 191 200 173 198 163
239 242 246 269 360 344 305 290 269 226 251 243 224 227 208 202 191 188 186 176 189 188 188 185 201 193 222 243 206 247 287 202 205 192 192 206 195 185 196 199 184 181 173 175
250 249 258 335 356 329 296 276 268 230 250 219 220 215 195 198 195 189 189 196 199 185 197 186 194 190 215 247 205 240 254 235 202 204 190 206 196 185 176 204 206 192 163 170
258 256 261 359 347 313 299 276 272 242 244 230 219 228 202 206 198 189 190 198 193 199 198 197 180 193 212 226 209 193 226 290 193 189 200 187 205 176 182 181 180 181 175 174
263 111 361 323 333 314 288 266 269 253 256 232 218 216 206 200 202 195 193 193 198 187 192 192 201 194 204 186 244 198 224 229 229 190 192 193 185 203 177 183 180 176 174 171
288 366 348 333 322 304 296 266 257 242 248 220 218 204 214 206 200 189 190 191 196 179 177 201 197 177 182 186 225 205 194 232 254 229 183 192 190 188 187 184 168 189 190 188
369 360 326 321 319 297 284 271 253 242 233 228 209 207 207 213 202 201 196 196 200 196 202 202 196 162 191 187 184 231 197 198 237 256 233 186 193 189 188 185 185 182 186 183
357 343 351 318 300 288 292 266 250 237 229 227 215 213 199 210 211 205 201 203 197 198 203 201 200 200 184 158 206 167 224 192 197 241 249 265 189 191 183 187 183 180 190 177
361 333 345 314 215 292 293 255 255 242 226 238 239 206 223 207 201 202 205 204 201 201 196 207 192 186 198 181 161 206 230 210 191 202 231 244 264 205 189 178 182 187 178 172
356 345 208 85 303 301 298 256 245 241 247 222 215 217 210 207 209 214 205 207 208 200 204 197 182 197 205 188 163 197 196 230 213 194 195 224 233 246 268 227 186 182 180 177
348 354 340 326 138 302 300 256 254 241 246 233 231 217 205 199 222 226 216 208 208 210 215 221 209 209 199 203 188 150 207 200 229 212 191 187 202 234 229 258 260 259 195 182
342 360 344 342 295 296 302 262 252 243 237 231 225 246 241 222 219 207 200 198 198 198 189 189 204 212 196 210 191 193 207 208 219 225 208 204 185 189 191 234 221 225 234 238
366 358 334 361 296 290 309 279 258 244 233 226 240 225 218 240 233 227 230 209 206 211 211 201 203 207 217 206 181 192 187 190 198 202 222 206 204 202 201 197 199 200 206 214
355 367 338 355 304 304 286 270 257 247 235 229 219 219 219 218 215 215 212 215 214 211 209 208 213 214 218 193 210 192 185 193 202 200 204 225 207 199 196 195 195 194 193 193
427 412 403 346 320 295 295 278 268 258 241 236 227 217 222 233 211 208 208 225 219 211 211 214 212 210 214 219 218 204 181 188 190 192 196 194 218 211 201 195 195 192 187 184
403 402 361 327 324 291 282 291 277 257 243 242 236 231 228 216 223 215 218 227 217 209 199 200 193 226 219 222 216 209 203 213 199 191 195 211 196 197 222 205 200 194 198 192
342 364 299 340 319 155 293 287 283 268 252 244 240 242 238 228 227 227 224 222 232 213 214 201 214 207 211 213 211 208 213 192 216 203 203 192 194 199 198 224 217 209 202 200
337 299 311 336 308 192 295 301 279 278 264 264 250 242 237 230 234 239 224 227 221 236 231 209 215 207 201 204 206 218 202 202 200 208 199 203 202 196 212 233 223 213 214 214
298 306 322 318 289 282 286 307 294 284 275 266 264 259 248 238 178 166 219 223 225 214 215 217 213 217 214 211 207 209 210 203 193 200 205 213 220 224 227 227 226 224 221 221
310 313 321 307 268 275 280 296 309 120 285 272 262 260 253 251 243 233 223 221 221 219 217 217 218 220 221 180 214 211 212 211 212 216 222 220 230 229 222 222 221 215 211 209
303 307 308 309 275 274 272 275 132 298 305 293 281 269 255 253 250 250 240 234 234 232 231 230 229 231 231 230 232 231 235 230 226 228 232 230 232 234 233 226 220 216 220 227
298 303 300 285 279 279 280 278 142 275 283 304 316 318 291 281 272 267 265 259 206 248 246 239 236 235 236 237 243 251 237 236 231 232 230 230 264 262 257 242 242 237 238 240

GFSCGP_2pvu_pres_105.txt.gz
Presure
183 186 196 204 213 223 214 230 222 227 271 264 266 321 330 265 240 236 203 197 197 186 84 188 188 195 207 223 190 223 195 234 223 202 203 196 172 170 176 175 173 182 172 182
185 186 197 210 203 211 224 227 237 263 229 275 254 334 316 243 231 193 204 198 197 195 190 190 197 195 205 216 206 247 206 245 242 233 204 191 171 172 171 188 174 191 161 172
204 209 209 209 217 216 223 235 263 274 248 244 335 324 295 241 203 233 181 200 198 195 189 190 198 197 204 195 219 233 225 214 228 211 224 183 203 179 196 191 194 191 158 166
210 201 214 216 224 216 247 251 258 242 263 277 332 322 279 234 202 179 216 208 195 186 193 192 196 184 199 203 221 219 230 199 242 233 232 207 207 202 172 186 207 171 180 171
209 217 232 228 247 245 259 260 252 249 273 322 310 319 240 233 218 227 211 162 196 193 186 191 191 181 200 197 220 224 233 212 262 216 220 216 201 202 200 181 186 179 186 175
224 212 219 231 243 237 270 261 240 270 275 412 276 271 251 233 226 222 211 197 205 196 189 190 190 193 193 192 213 220 234 214 253 221 219 212 218 237 211 194 188 183 193 193
213 215 233 226 238 260 253 263 252 286 352 378 277 272 240 227 222 212 207 200 204 196 197 192 202 191 180 198 202 205 240 206 218 262 213 216 204 212 223 227 195 195 219 226
237 224 214 260 241 271 227 241 271 271 387 343 282 253 241 219 220 219 209 210 204 198 196 196 204 183 167 205 197 201 248 201 229 275 212 204 212 200 191 211 193 199 193 173
238 240 245 265 269 243 246 275 269 383 371 334 286 256 239 230 216 208 199 201 191 200 199 201 199 199 199 193 209 203 204 215 191 254 216 198 199 207 190 199 198 206 196 188
270 289 247 259 237 263 273 278 375 366 348 310 265 259 234 229 208 207 197 201 203 206 200 195 191 196 183 178 199 182 198 247 198 212 273 204 193 191 194 191 196 200 183 182
281 165 242 253 257 267 276 373 359 347 327 304 263 232 227 217 212 199 205 200 200 211 201 195 195 158 194 192 196 201 202 203 221 191 239 256 195 193 185 189 193 183 199 195
259 265 263 278 284 360 334 331 366 335 307 282 265 244 217 210 215 210 208 207 202 213 204 198 193 197 196 170 205 202 169 213 236 213 179 242 212 191 202 190 192 189 188 182
285 274 376 390 358 351 355 97 323 323 290 270 263 220 223 213 213 212 218 191 207 206 186 181 200 195 200 201 201 165 195 165 170 196 216 184 230 217 188 193 189 180 183 192
373 383 377 371 209 341 361 224 312 317 291 261 263 232 234 213 208 214 216 193 204 211 212 207 212 201 184 197 215 182 188 193 186 210 228 202 183 229 241 198 190 195 184 178
84 374 353 357 327 270 103 97 277 309 285 264 254 233 247 220 208 209 199 208 207 208 211 198 201 195 216 206 205 196 185 189 193 175 202 217 209 197 211 231 232 194 190 199
344 348 339 333 341 334 351 315 303 310 277 258 255 238 228 237 228 213 214 218 217 204 195 201 204 200 185 170 215 196 217 196 202 192 199 202 231 214 185 201 212 228 238 200
339 335 330 332 337 345 363 164 316 319 262 251 263 228 230 219 220 225 234 244 211 216 206 211 214 218 227 259 202 206 213 206 194 200 203 193 205 198 230 196 190 191 200 218
330 329 327 331 331 354 328 307 307 288 250 255 254 236 222 227 220 225 230 226 228 215 209 211 204 207 185 194 194 223 200 220 202 201 203 191 194 201 216 228 224 204 191 190
318 334 348 344 339 343 341 323 313 289 259 254 252 262 123 224 223 222 215 213 217 218 210 217 208 204 196 205 206 182 179 213 235 171 204 189 205 189 211 187 203 223 220 207
303 345 346 354 365 359 331 334 309 268 265 258 250 240 235 256 239 225 212 225 227 220 219 219 224 224 207 205 172 164 179 182 198 225 180 201 194 187 200 200 191 193 206 208
334 355 419 394 394 393 325 247 312 298 299 254 238 245 246 237 192 223 242 251 254 243 210 209 201 208 212 210 211 200 193 194 207 221 217 213 210 198 199 193 190 214 203 195
335 333 356 369 369 340 307 339 309 303 293 266 247 245 238 240 228 225 221 216 222 212 214 209 208 208 210 212 201 202 197 203 215 216 213 212 215 212 195 204 209 193 197 203
310 325 315 305 324 294 308 337 306 302 304 291 257 249 243 237 228 222 214 218 229 215 206 213 212 213 211 215 220 211 227 214 212 199 199 200 201 206 209 203 194 203 204 199
303 300 285 285 292 300 329 320 302 298 294 297 284 253 233 241 232 229 224 222 220 221 221 218 211 220 220 220 217 238 216 210 209 208 208 202 199 200 205 208 209 202 211 215
290 295 288 294 296 169 318 320 297 285 294 294 293 277 253 245 242 237 192 232 226 224 222 226 225 223 246 238 229 225 215 211 206 207 212 214 204 204 206 208 210 215 223 220
301 308 300 304 308 312 309 288 285 282 284 296 307 292 278 268 250 246 238 181 238 239 229 223 222 226 223 218 215 214 215 219 217 213 218 219 219 218 222 225 237 233 235 232

GFSCGP_2pvu_pres_108.txt.gz
Presure
180 187 186 193 204 210 204 214 208 205 203 219 222 229 231 128 268 266 263 341 246 237 203 194 193 195 201 185 170 208 215 217 215 273 191 187 196 199 176 184 169 173 168 188
198 204 194 197 195 207 197 202 209 211 210 224 229 243 129 281 261 266 345 308 241 228 206 193 193 197 178 192 195 213 216 196 235 247 203 190 194 194 183 185 178 169 177 192
209 207 206 201 203 205 196 197 206 214 211 220 236 192 236 230 253 327 356 278 223 229 201 199 195 196 199 198 202 195 215 211 199 221 249 198 185 191 180 179 182 183 186 178
195 196 206 205 201 209 207 225 209 212 216 223 227 261 258 270 258 378 326 234 222 227 189 195 191 201 193 195 205 209 212 210 235 250 251 218 205 183 190 180 178 187 169 192
206 201 193 199 206 208 211 210 213 222 222 231 230 257 297 237 330 357 267 234 225 211 196 195 198 203 195 197 199 203 200 213 233 195 218 306 206 190 208 193 177 186 166 168
202 202 208 206 210 210 219 220 220 229 236 248 243 266 212 256 369 336 242 243 216 214 201 203 196 200 195 197 191 197 201 216 223 225 203 283 215 192 191 180 186 181 167 178
218 216 223 209 217 215 213 231 234 227 239 229 69 99 225 380 343 324 241 236 221 203 198 199 203 196 159 183 199 201 197 212 217 233 207 246 312 203 216 196 191 183 175 178
231 225 221 228 231 230 205 209 217 238 247 261 282 295 262 392 325 266 240 227 231 199 200 196 191 200 196 199 209 179 204 216 207 232 195 223 294 221 219 211 187 185 183 180
237 238 231 237 242 227 238 243 244 242 259 292 286 239 271 359 299 238 238 230 228 210 208 198 201 203 206 180 206 196 206 216 204 217 194 219 278 245 205 222 232 203 194 193
219 197 216 230 232 198 237 227 233 252 257 242 249 261 394 327 278 250 235 230 233 215 204 199 201 213 199 190 209 210 202 196 193 213 215 202 248 273 213 200 201 218 217 213
243 247 243 240 231 235 236 236 258 275 285 264 259 406 368 292 254 243 218 226 230 203 201 206 202 210 207 197 192 179 203 213 191 200 235 190 201 248 224 212 199 186 197 202
263 194 255 253 76 253 95 261 265 293 265 294 412 368 331 284 244 233 221 215 222 218 197 205 212 202 202 212 200 208 206 207 205 191 215 224 197 203 238 206 206 195 195 184
284 289 281 282 277 285 279 270 264 262 302 366 384 328 301 268 246 218 211 215 220 224 209 194 202 205 203 211 193 208 191 199 208 200 216 196 234 203 200 204 200 201 197 184
270 260 259 255 255 262 266 314 340 371 111 360 368 305 276 252 230 223 214 215 210 212 205 201 207 191 209 231 195 178 201 174 199 199 195 202 197 221 193 230 204 188 200 194
372 385 388 401 396 355 358 383 354 258 345 353 345 287 263 239 230 224 228 226 213 207 210 208 205 196 214 189 213 208 197 197 203 194 176 204 163 195 209 181 211 227 190 191
363 371 88 358 361 355 290 366 359 357 335 338 320 288 258 236 229 220 215 225 224 209 184 213 208 191 211 221 190 201 210 209 185 183 199 178 194 163 198 207 219 185 229 212
362 369 366 362 348 351 364 342 353 354 326 319 308 274 258 230 228 221 211 217 224 217 209 217 199 197 210 202 193 186 189 201 200 183 211 224 213 186 201 194 201 231 203 195
352 351 354 349 337 352 334 323 353 332 318 322 300 282 254 234 236 218 220 183 219 227 216 214 203 205 204 204 202 189 202 180 201 187 198 169 208 208 194 188 187 197 192 225
341 342 345 333 337 327 329 331 350 324 310 310 296 267 271 246 235 227 222 224 222 217 210 214 208 209 200 200 198 209 212 158 192 193 198 185 213 213 185 201 206 203 191 197
328 324 329 330 331 326 330 333 335 319 310 295 306 277 252 257 230 232 229 221 139 222 220 211 195 197 207 210 198 213 198 186 189 195 195 191 212 239 233 201 201 199 185 202
339 359 385 351 352 277 331 330 328 335 311 290 288 282 255 263 248 231 232 206 232 234 233 232 225 234 204 210 209 211 193 193 187 177 185 191 183 186 201 213 221 202 194 200
336 359 389 430 341 341 373 327 343 332 332 311 272 279 277 256 253 236 231 237 236 226 221 218 219 210 214 215 209 210 199 213 207 204 208 195 196 210 207 202 225 220 221 215
310 321 335 378 388 373 358 376 334 329 313 318 284 267 277 266 246 237 228 230 225 226 221 220 219 221 219 220 227 240 221 218 227 218 211 221 191 201 201 217 222 225 214 221
312 303 303 297 312 326 331 333 325 332 176 192 296 262 264 271 264 244 229 226 231 232 225 226 222 221 225 226 226 232 201 203 201 195 196 195 219 200 200 203 217 208 204 206
304 297 302 295 295 299 302 306 297 321 338 321 288 296 261 261 246 255 260 238 232 230 231 232 229 239 250 241 221 208 205 205 201 201 203 206 216 222 211 211 209 208 205 205
295 295 294 279 291 297 300 291 285 318 335 320 294 259 263 256 247 238 239 245 245 249 203 246 235 219 209 229 202 212 203 205 208 208 224 215 215 224 210 207 205 204 205 207

GFSCGP_2pvu_pres_111.txt.gz
Presure
187 191 191 191 186 187 183 194 184 185 188 204 215 215 200 210 220 212 79 214 234 295 258 260 273 227 226 206 192 188 195 207 222 215 226 222 215 199 214 176 199 216 181 181
228 224 199 201 201 194 194 192 189 198 207 230 206 218 214 208 217 215 215 240 237 268 252 355 257 236 228 203 201 192 187 212 203 196 219 248 216 183 193 201 204 200 195 194
224 227 224 207 209 208 204 213 213 198 219 205 208 210 215 207 210 137 234 226 264 253 376 323 245 234 219 203 202 183 209 186 200 205 199 240 205 192 192 209 200 192 183 195
215 219 214 215 216 216 206 206 216 212 207 202 212 218 170 209 220 222 215 232 249 257 376 290 240 222 214 209 203 187 201 173 212 208 215 222 207 202 186 205 191 190 179 184
226 215 215 219 216 221 211 66 207 205 203 205 221 236 202 200 213 212 236 266 272 376 336 273 235 222 214 205 207 198 200 187 211 203 220 192 246 202 194 187 205 192 191 183
220 226 214 218 211 212 208 207 205 211 215 207 167 133 223 214 208 231 238 301 267 395 297 253 227 218 210 198 200 199 193 205 192 212 223 240 211 256 197 197 200 185 191 190
225 218 234 223 226 227 220 214 218 220 213 223 210 113 87 124 246 260 252 275 293 357 277 228 221 213 201 199 200 200 197 203 192 201 220 236 190 217 240 196 193 195 178 187
226 216 229 230 225 221 223 225 231 231 228 231 227 239 67 72 245 243 230 237 356 297 271 234 223 210 190 204 199 192 197 193 202 214 216 244 216 203 297 230 203 192 191 187
231 165 238 229 229 221 221 221 221 225 233 228 226 223 229 239 255 263 268 268 385 287 266 234 221 213 183 201 203 191 194 191 205 195 209 211 215 197 269 294 217 195 197 180
252 242 240 228 225 229 221 220 221 224 231 235 235 241 245 248 271 283 254 313 361 281 250 230 216 213 208 203 202 207 198 201 181 205 203 208 224 222 225 278 219 212 199 191
192 223 231 199 237 234 232 235 238 241 246 251 249 246 253 262 261 242 256 373 322 270 235 225 220 205 198 200 204 203 210 199 201 204 195 207 224 199 200 259 255 206 209 202
250 249 244 242 241 238 98 235 244 242 245 251 262 265 268 268 286 261 397 334 287 260 232 224 214 203 202 204 202 203 200 196 207 204 183 194 202 214 210 226 270 206 199 200
254 258 144 120 240 236 238 237 246 246 257 261 275 288 296 284 263 392 339 288 250 228 228 219 210 203 203 209 194 197 198 190 180 195 188 207 214 219 196 198 224 272 208 192
265 276 194 272 261 256 252 257 260 267 274 282 287 251 262 284 374 363 273 260 242 235 229 218 215 206 203 200 202 207 189 188 211 181 188 209 200 203 208 198 196 219 251 222
284 281 273 226 278 210 259 261 263 264 265 273 268 278 283 386 361 295 252 245 249 235 230 211 219 204 195 197 208 207 197 210 178 193 190 194 200 188 206 213 213 180 211 193
337 385 379 362 272 271 273 279 285 291 295 387 373 169 97 366 322 260 241 233 235 226 222 214 222 206 199 196 199 199 208 183 183 199 181 205 183 207 216 168 200 209 208 192
377 367 375 386 379 348 206 110 364 374 385 392 162 353 357 321 288 251 242 227 241 239 218 218 220 211 206 200 194 201 204 221 199 208 212 205 216 193 197 194 201 199 205 221
380 385 387 252 384 382 374 366 363 388 376 380 357 275 331 302 268 237 239 234 225 241 223 228 219 217 206 193 185 186 198 195 209 202 202 208 208 199 202 216 177 205 177 193
368 368 370 368 366 371 360 350 360 366 380 373 344 334 314 282 260 231 232 229 223 229 226 238 219 219 194 208 198 202 224 216 192 191 201 199 208 199 197 197 198 178 192 213
343 346 348 350 355 359 336 142 344 351 354 350 343 324 287 264 256 238 234 235 230 220 231 234 233 214 210 210 202 190 190 196 205 199 198 204 217 199 193 207 195 168 215 194
326 328 335 341 343 326 338 322 334 330 324 367 349 318 285 259 251 247 237 231 245 184 236 220 216 163 224 221 203 204 201 192 196 183 192 198 218 174 170 212 197 205 214 183
313 334 354 364 316 321 328 322 317 319 331 352 330 319 297 257 252 247 242 235 247 236 231 210 231 230 235 213 192 193 192 190 200 198 190 206 207 181 195 207 201 195 212 186
316 322 389 421 337 349 333 314 313 324 337 331 316 320 302 263 253 244 236 235 223 237 237 234 227 203 236 230 205 198 199 195 202 199 184 205 195 192 197 194 207 211 187 172
307 304 315 383 387 347 346 336 323 325 317 336 304 300 282 269 255 240 239 234 235 243 234 242 229 234 214 192 198 201 193 203 213 223 194 208 197 196 205 191 214 199 213 213
304 298 306 310 317 322 345 340 325 318 344 354 315 317 299 289 254 244 244 231 231 229 229 230 217 218 227 220 220 214 213 221 208 204 214 200 197 196 207 221 201 197 201 197
300 305 296 300 305 302 304 314 328 332 321 333 357 300 287 295 286 261 240 244 229 229 231 246 249 243 228 222 211 219 210 208 209 212 211 214 213 206 219 199 201 197 194 194

GFSCGP_2pvu_pres_114.txt.gz
Presure
201 213 202 208 189 191 202 186 215 210 206 187 204 212 208 188 186 190 206 216 204 228 216 200 219 229 255 252 272 242 235 216 201 194 207 205 229 213 219 251 211 190 201 191
199 196 202 209 199 211 200 203 203 198 209 209 205 198 208 203 190 205 200 180 77 87 208 202 220 239 261 251 347 230 227 217 190 197 196 211 225 216 213 224 235 211 191 193
209 213 217 218 215 217 223 201 227 205 198 213 222 209 203 200 202 209 216 203 230 215 201 212 250 265 263 360 263 231 221 212 197 194 202 204 218 216 207 216 220 236 200 175
210 227 203 219 222 203 238 215 223 218 217 227 222 134 201 207 201 212 205 208 107 188 226 208 264 284 257 341 236 235 217 209 207 189 209 205 194 215 205 212 194 207 223 183
213 211 212 214 216 241 232 232 237 224 227 220 227 241 212 208 216 204 199 220 191 232 218 244 265 265 333 319 242 231 214 200 206 193 204 210 231 231 206 208 199 190 193 211
222 225 226 218 244 230 230 225 163 221 226 228 198 233 223 204 155 185 193 175 225 232 193 242 247 248 330 297 235 224 210 199 205 204 208 200 205 243 226 202 204 204 189 210
237 242 247 250 227 232 236 227 225 225 228 231 209 219 222 152 110 130 221 219 231 190 237 245 241 308 313 277 232 210 214 183 205 189 202 220 212 241 210 203 202 197 192 196
246 247 247 243 246 240 234 226 224 224 224 223 224 215 228 96 138 95 207 231 212 220 255 269 255 299 298 261 225 197 213 180 201 199 207 209 209 201 212 198 205 195 199 195
255 244 246 251 247 237 231 226 229 224 224 222 224 230 226 220 143 98 90 224 222 230 255 282 179 289 281 225 224 214 214 194 201 209 128 203 222 207 242 202 279 212 197 205
250 252 253 250 239 236 232 230 228 236 231 235 233 230 232 233 227 231 240 247 239 247 275 262 247 288 272 226 221 213 202 197 201 203 198 198 196 213 220 220 197 213 223 200
255 80 251 247 245 238 236 236 237 237 190 237 252 245 230 228 231 239 241 246 251 266 288 246 304 274 259 221 218 211 197 195 199 190 201 222 223 213 220 218 213 282 282 220
210 254 250 251 252 251 252 245 249 249 249 253 249 244 238 238 238 242 244 255 261 271 249 277 303 267 245 222 220 208 200 202 195 189 198 207 215 181 219 209 204 264 284 224
261 230 261 257 255 254 250 251 257 253 248 253 260 250 240 248 253 255 260 258 273 270 283 383 287 263 237 222 220 209 200 192 193 203 189 196 203 189 185 216 195 229 254 219
164 266 260 258 266 262 117 182 254 260 257 254 219 254 238 247 255 266 254 249 240 265 357 309 281 256 229 219 211 204 195 203 196 197 195 194 191 220 185 206 209 200 231 196
328 344 277 103 233 255 266 271 260 252 252 259 264 274 257 259 275 243 232 233 248 338 307 280 271 241 225 215 209 202 197 197 185 195 190 199 204 207 210 197 213 200 189 224
400 371 367 367 326 276 262 262 277 279 277 283 83 292 279 145 267 264 273 282 314 289 278 263 260 228 203 215 210 202 202 198 189 200 210 189 193 178 205 211 192 206 198 183
399 386 377 359 295 280 294 237 269 263 271 169 290 281 260 240 280 284 360 404 295 265 258 250 247 215 208 206 190 206 204 204 201 184 190 195 187 194 203 215 183 205 197 206
406 406 397 384 366 373 194 95 373 330 378 150 274 298 266 384 362 196 382 310 267 263 253 243 238 248 208 209 209 207 205 164 199 199 186 196 198 203 194 200 212 204 195 199
387 388 392 404 397 389 419 398 387 394 387 389 402 403 427 371 351 342 365 272 256 257 242 253 238 231 213 217 203 209 202 189 188 194 197 199 205 193 223 196 212 195 211 166
356 357 360 361 373 368 358 365 374 369 369 368 378 375 394 360 338 340 285 260 252 239 240 251 236 227 212 172 211 200 202 213 190 187 191 180 214 212 200 203 202 211 203 194
322 329 329 337 344 358 369 362 355 353 324 321 335 373 363 361 340 338 274 255 250 245 236 233 249 233 221 209 218 203 196 203 198 203 205 192 213 210 182 192 205 193 214 208
312 306 324 327 331 357 351 344 335 323 305 302 308 332 361 372 337 291 267 253 247 245 245 233 241 238 229 218 219 207 197 202 204 202 204 210 226 196 199 201 202 210 212 232
317 327 355 401 401 317 321 325 318 311 309 301 323 334 367 346 328 279 259 256 246 243 258 245 209 242 241 221 207 218 200 206 210 208 183 187 193 198 198 205 202 194 223 193
311 322 349 382 318 311 306 309 305 304 298 305 306 327 360 330 321 271 259 251 249 238 250 239 248 226 226 228 209 217 213 213 196 203 190 193 198 197 182 193 195 202 194 223
298 311 329 327 318 314 307 298 297 296 318 329 310 330 352 345 307 274 257 243 253 258 239 235 245 245 230 226 236 219 206 205 210 207 206 220 194 193 193 191 200 191 211 203
299 299 305 296 303 317 314 313 265 296 303 309 324 341 349 351 297 275 256 247 245 208 245 229 239 235 244 223 233 221 202 204 202 194 196 194 190 199 193 191 194 210 215 213

GFSCGP_2pvu_pres_117.txt.gz
Presure
212 206 193 203 193 185 203 207 180 213 199 178 187 189 190 111 191 200 205 204 199 200 201 202 215 219 198 201 206 240 265 275 247 238 235 211 201 201 213 220 208 224 226 221
213 207 185 208 172 204 195 183 214 203 203 199 190 196 175 205 183 198 203 195 205 204 194 209 215 202 199 211 228 248 297 263 280 241 229 115 197 202 208 219 224 215 234 205
221 216 215 213 225 207 204 203 174 202 206 203 198 180 197 213 194 207 205 203 199 213 210 143 212 196 211 198 233 252 284 390 260 239 217 200 193 194 207 216 207 220 230 215
227 220 222 217 218 229 213 211 211 209 215 218 219 227 211 205 208 192 217 210 207 219 215 218 205 205 187 193 240 264 257 382 238 232 215 206 193 183 202 213 204 220 235 205
237 236 232 231 230 230 223 212 217 217 219 211 195 203 197 236 219 214 211 209 211 219 221 215 196 179 211 187 238 271 289 310 227 230 215 208 194 188 195 209 207 219 223 233
276 268 251 241 231 230 227 216 219 220 220 218 204 212 232 223 220 216 213 206 208 221 232 227 204 242 233 217 240 280 368 257 228 224 214 206 196 192 202 225 196 219 215 222
281 265 275 264 228 236 234 223 220 221 223 148 216 220 78 235 219 210 129 128 181 187 228 211 231 226 209 226 252 281 363 237 229 220 208 199 187 210 191 237 205 204 212 206
263 271 257 260 257 253 231 228 230 226 222 223 219 134 76 234 210 205 97 94 175 203 226 229 228 206 226 246 260 281 325 235 227 211 204 201 193 203 224 203 211 205 212 206
259 256 271 258 244 251 256 247 248 248 250 242 245 244 230 229 217 116 101 111 217 87 238 237 172 218 245 241 266 294 249 230 221 198 204 200 190 203 217 226 237 208 202 204
271 264 250 251 258 255 249 249 246 249 248 253 244 244 243 229 219 214 207 137 218 229 230 212 228 239 245 256 234 313 240 228 214 204 204 200 191 191 207 212 200 239 195 199
260 269 270 251 254 254 248 249 252 252 253 253 116 248 243 235 227 220 218 219 226 151 233 185 234 235 247 264 283 318 233 222 206 204 204 194 194 188 194 219 182 216 225 196
136 266 262 95 260 253 256 258 251 253 254 251 263 252 239 236 231 230 232 233 228 250 234 232 236 242 257 282 276 318 228 221 211 203 207 198 202 173 206 206 217 228 206 220
345 291 262 122 252 267 119 257 254 256 240 259 240 247 242 241 239 241 240 248 216 240 178 237 244 250 269 312 372 250 229 219 212 202 197 201 190 181 188 209 210 179 214 260
344 224 270 262 260 262 261 268 266 260 257 256 176 252 249 246 249 256 250 245 240 237 240 243 250 262 301 267 327 241 227 213 208 204 198 193 194 196 193 207 194 210 211 232
391 84 315 333 280 268 264 266 264 260 257 261 260 266 253 254 207 252 245 171 245 243 244 248 264 285 268 297 301 233 223 216 209 208 205 200 193 202 193 212 221 191 215 203
375 392 407 321 339 312 280 126 267 145 263 272 274 280 273 246 254 145 261 251 245 170 257 258 270 263 390 310 255 227 220 208 211 209 202 190 190 192 190 192 192 228 191 209
427 192 87 416 379 305 308 348 279 276 269 269 269 266 255 88 236 279 258 214 251 269 284 266 258 344 335 283 240 229 216 211 206 208 205 192 191 201 194 178 182 202 203 204
399 412 427 405 379 401 392 217 172 318 373 242 282 279 281 271 260 264 267 272 262 265 234 253 254 328 279 253 230 230 215 204 211 202 206 192 193 191 191 200 196 183 204 204
373 380 387 395 406 422 387 367 339 372 378 372 379 383 428 299 311 175 288 285 271 235 266 272 283 298 272 237 220 208 217 207 205 204 195 195 192 203 189 199 199 191 197 189
338 349 350 359 368 373 376 395 421 446 464 450 391 386 378 386 409 342 379 399 377 361 341 308 284 298 261 232 226 207 217 204 208 201 207 200 177 189 188 183 190 207 207 183
324 326 338 347 352 356 360 377 378 382 352 343 327 325 339 365 379 392 399 367 360 353 309 288 278 287 250 231 226 208 215 205 204 215 213 189 197 195 194 196 193 201 190 214
309 320 334 353 342 324 350 366 345 319 321 319 311 310 336 342 343 375 342 351 340 332 291 275 286 269 250 229 224 211 214 195 198 192 191 202 201 199 201 183 211 180 204 196
324 338 370 409 352 325 328 340 314 307 299 308 316 312 321 333 342 363 357 335 326 291 282 271 280 260 254 232 221 213 210 204 197 180 196 198 210 192 187 187 195 214 194 211
323 337 327 310 309 310 313 317 304 301 317 303 306 312 317 322 355 351 339 326 316 283 269 260 270 247 243 235 228 215 155 209 202 199 205 224 226 223 229 215 209 187 208 224
311 298 301 299 300 292 299 296 297 299 296 302 311 312 310 311 332 342 348 320 308 272 269 260 260 248 250 233 224 215 214 204 206 213 201 190 196 190 218 210 198 190 181 191
295 306 300 304 295 294 292 286 288 293 289 290 297 324 309 318 353 336 347 314 290 269 267 258 249 243 239 250 224 218 214 201 198 197 209 208 203 206 201 193 212 183 194 200

GFSCGP_2pvu_pres_120.txt.gz
Presure
240 228 232 207 224 204 217 194 199 201 205 196 211 200 208 209 206 189 185 200 194 202 200 200 228 209 210 192 215 216 199 194 228 246 256 273 245 253 216 206 206 214 229 222
233 224 224 223 217 224 210 206 207 202 198 201 190 195 198 195 173 197 200 203 201 200 199 190 203 207 209 211 182 168 205 222 226 245 257 257 243 238 212 207 205 223 240 213
249 231 227 229 225 217 224 216 220 210 202 202 209 202 197 203 206 178 195 189 203 193 203 189 213 196 216 215 223 212 224 202 227 248 263 283 246 226 180 203 203 223 230 227
306 262 239 233 232 223 218 211 224 217 210 203 205 196 197 199 143 203 198 202 192 206 217 215 209 213 211 217 219 225 194 187 239 248 268 357 247 219 209 202 201 214 213 210
290 291 293 294 268 253 240 231 228 218 218 215 207 214 211 211 202 204 206 205 206 215 212 205 228 221 220 211 223 221 185 167 248 251 286 324 245 216 204 199 200 215 220 205
275 283 282 282 281 257 241 231 229 224 217 216 211 218 210 211 168 208 210 209 199 195 197 201 230 221 223 169 101 233 170 225 238 258 394 271 238 212 206 108 196 207 216 205
275 268 280 274 276 269 256 240 236 228 222 215 214 215 216 184 218 208 209 206 194 169 186 186 226 223 217 214 193 202 218 202 237 261 370 237 227 211 205 194 193 213 214 204
271 263 268 274 272 271 273 247 243 237 233 226 230 230 224 223 169 210 210 159 175 211 145 232 223 227 230 216 201 202 219 183 236 263 338 220 219 210 205 194 195 173 213 205
279 273 262 266 266 266 264 261 278 260 259 248 259 251 239 220 86 98 210 208 129 88 85 96 213 224 224 232 222 221 243 225 254 286 305 222 217 213 198 191 192 207 204 210
355 291 274 262 267 261 261 260 255 264 253 252 251 251 236 163 224 220 219 194 133 108 105 226 163 221 225 223 193 165 231 235 254 295 256 226 217 210 196 193 202 216 220 203
350 352 332 274 268 264 258 264 257 254 261 249 238 241 252 247 232 227 225 223 228 233 115 224 109 226 226 224 200 212 229 239 259 302 233 222 209 206 195 193 194 220 191 216
331 347 343 284 274 268 267 257 264 194 250 252 260 257 261 254 248 246 247 248 241 235 137 112 222 161 224 225 229 237 221 216 263 314 228 216 203 205 201 194 195 235 207 197
403 337 334 332 289 116 262 265 260 262 263 256 255 248 251 251 254 253 248 254 243 237 234 233 231 223 167 227 234 242 247 234 279 321 225 213 206 201 203 189 198 219 206 205
377 400 366 322 325 281 159 266 265 271 260 256 254 252 257 252 256 258 262 253 257 246 242 236 232 227 246 252 255 247 231 256 298 326 225 208 210 199 189 196 194 178 213 208
358 368 388 315 314 325 276 264 263 273 275 273 255 261 261 258 265 261 263 258 262 251 140 241 240 247 256 248 245 250 244 271 304 257 224 212 207 203 205 194 199 193 218 216
356 367 370 93 369 309 320 332 274 272 268 274 276 272 253 259 257 252 254 254 253 249 242 240 250 252 246 247 249 252 256 305 306 238 220 213 205 202 199 194 198 199 214 219
351 371 391 401 383 346 360 293 268 314 276 274 265 259 135 269 266 259 254 241 250 173 160 147 214 246 246 249 252 264 290 251 302 230 218 212 204 200 191 194 191 191 198 203
265 388 398 420 328 94 398 419 325 332 343 294 283 276 265 178 262 185 259 263 264 250 190 255 247 250 246 236 256 299 275 303 248 224 217 213 205 196 204 198 186 202 192 190
339 343 351 104 375 405 140 84 153 90 101 155 90 372 178 278 251 164 183 262 261 265 266 248 250 248 251 258 289 278 246 288 232 216 207 213 204 201 203 192 188 197 201 184
335 337 339 344 349 258 387 409 419 426 451 467 455 444 457 171 451 318 284 279 165 258 262 260 257 265 272 275 269 284 291 251 234 221 211 214 205 198 204 188 185 192 197 193
330 329 333 336 340 343 345 364 385 412 385 363 349 325 330 339 364 372 399 408 435 426 370 287 271 266 271 275 265 311 270 232 223 215 213 215 202 204 203 197 186 185 197 197
322 350 364 356 329 346 367 365 335 320 315 318 320 321 320 310 316 327 347 393 391 408 168 380 379 324 228 255 337 287 247 217 238 214 209 203 203 205 199 193 192 197 191 195
333 335 317 355 328 353 316 320 315 306 306 304 304 306 306 316 335 332 345 371 381 391 391 366 348 329 244 242 304 271 243 225 212 207 222 199 202 184 200 202 188 197 182 196
315 306 301 305 329 311 304 301 298 301 312 306 308 307 326 319 311 339 356 366 380 364 354 333 321 334 276 283 287 251 232 223 210 211 225 214 160 195 189 194 185 198 188 198
299 295 289 295 314 298 298 296 298 304 307 298 307 314 298 301 310 324 339 364 354 328 323 307 329 305 278 297 275 250 235 229 219 212 203 202 193 213 208 208 209 183 191 194
289 298 290 279 311 295 277 281 290 293 280 277 284 291 300 345 322 312 335 360 327 312 307 320 295 283 273 292 261 238 231 221 224 217 210 201 192 188 209 209 218 192 203 203

GFSCGP_2pvu_pres_123.txt.gz
Presure
261 258 253 236 237 248 237 234 235 216 199 223 187 195 202 198 193 192 206 205 199 204 208 209 202 203 186 201 196 204 189 205 206 157 206 201 225 229 266 273 253 229 225 207
275 267 247 262 242 236 236 232 234 224 207 218 217 214 200 204 204 196 183 198 215 196 202 199 189 209 206 207 196 202 192 203 159 210 180 227 219 232 269 273 252 226 224 208
320 307 298 262 266 256 236 226 219 207 218 230 218 211 198 205 200 198 197 177 195 201 202 193 199 199 183 195 197 190 219 206 191 186 194 172 217 229 275 282 245 223 220 208
295 286 284 306 304 262 253 253 237 224 228 230 219 219 212 212 212 207 202 205 198 198 200 203 192 202 196 192 205 211 216 192 219 214 152 242 225 252 270 291 240 222 217 208
278 284 280 278 285 285 296 264 256 240 233 225 229 218 212 213 218 217 215 207 201 200 195 200 205 200 201 198 208 204 210 199 224 155 224 229 187 254 271 353 233 221 212 210
280 274 279 276 276 278 274 288 304 281 237 233 220 217 213 214 213 221 218 211 207 202 200 203 203 201 195 202 211 198 194 206 226 221 218 242 215 253 324 283 228 216 207 198
272 272 275 273 269 271 270 271 287 293 301 225 219 222 221 217 210 214 220 212 209 203 203 204 204 204 201 206 204 198 202 214 224 194 221 215 218 255 319 250 223 216 179 203
366 323 283 262 275 267 268 272 266 279 283 277 269 239 227 221 230 228 220 210 209 202 198 166 183 209 210 210 198 98 201 210 226 222 225 178 250 267 233 240 220 212 199 192
351 347 348 363 284 268 267 268 260 267 274 279 270 264 253 243 233 222 218 217 201 210 210 136 210 217 213 203 210 210 209 160 224 232 229 220 241 267 357 230 214 209 199 195
370 340 340 346 360 313 269 267 258 258 270 272 269 259 256 241 235 227 220 100 218 163 181 175 84 91 169 99 211 214 220 213 189 188 234 240 238 244 245 224 213 204 199 209
400 407 330 331 342 341 332 265 268 259 267 269 260 266 255 248 244 239 227 221 224 223 222 229 221 112 108 138 212 216 233 193 174 226 226 245 231 272 228 222 210 203 199 202
372 383 395 322 322 342 325 333 267 261 243 256 260 253 260 261 251 252 256 249 256 244 222 230 171 130 118 117 223 225 234 231 209 223 234 248 257 275 220 221 208 200 188 196
358 366 366 382 335 333 321 316 280 270 253 260 257 254 247 255 251 257 246 243 254 251 211 226 183 140 221 126 221 237 204 224 187 156 228 252 248 277 222 220 209 204 192 203
364 352 350 357 387 313 218 310 156 270 269 257 253 252 252 249 264 257 254 246 250 235 243 246 240 223 221 210 165 177 218 230 197 198 231 238 258 281 223 217 208 204 196 195
353 351 350 348 362 385 318 318 314 301 269 252 259 254 254 262 271 272 256 251 242 240 240 246 250 250 237 232 209 230 219 232 230 234 234 242 240 245 225 216 203 203 200 196
344 227 353 359 368 369 400 325 303 317 283 273 267 259 262 255 270 91 265 267 256 250 263 254 259 248 252 245 240 236 234 231 227 236 213 262 270 239 223 215 205 198 198 190
341 350 344 346 367 386 205 393 305 300 305 279 274 271 266 269 273 269 268 262 261 261 254 258 259 270 250 253 249 247 240 235 231 239 254 244 282 237 224 214 205 198 202 191
355 359 365 96 396 336 110 381 336 312 313 315 286 279 267 233 281 270 266 265 261 257 258 232 100 256 261 258 253 243 241 242 248 252 249 265 295 235 225 214 206 200 201 185
329 337 343 352 363 288 393 384 386 389 299 307 238 309 162 131 270 257 262 264 273 276 268 258 94 255 259 256 251 245 241 245 252 254 275 287 300 233 223 212 204 203 198 205
323 324 329 335 349 356 359 379 404 294 411 321 299 99 303 312 321 162 277 143 250 260 268 271 130 260 252 249 253 250 255 257 257 269 310 288 302 227 219 214 208 201 197 197
323 323 317 329 337 340 343 364 379 394 365 374 367 259 351 334 328 374 139 331 300 171 265 263 265 265 256 256 259 257 258 262 257 286 266 289 262 223 212 213 206 202 199 192
330 343 350 329 326 310 350 364 356 327 324 321 327 312 322 296 316 262 331 345 216 356 275 332 271 269 267 265 267 262 265 271 283 270 259 265 236 218 202 207 206 205 196 200
313 317 338 343 345 342 304 292 303 297 297 307 313 320 311 303 306 317 323 322 337 357 378 156 417 431 276 274 273 276 273 273 295 246 271 237 224 213 213 205 205 212 204 206
302 298 322 309 297 285 290 292 292 293 295 299 302 303 306 307 305 304 309 332 341 341 353 393 406 204 374 370 282 281 278 280 268 256 239 202 211 222 214 207 203 212 200 199
294 296 310 282 286 291 290 291 294 293 293 287 300 303 307 308 311 316 328 328 342 339 365 382 393 369 341 370 295 296 300 318 259 238 226 220 210 200 205 195 200 214 193 181
281 300 295 283 282 282 281 289 287 298 306 277 278 284 297 294 295 333 305 323 345 358 360 351 344 340 340 363 321 297 278 284 259 233 237 221 207 208 212 214 211 205 203 180

GFSCGP_2pvu_pres_126.txt.gz
Presure
207 204 213 219 233 223 233 225 273 280 259 248 242 239 234 230 221 169 187 212 202 203 206 206 203 213 206 199 204 203 207 180 181 199 205 192 164 205 208 226 238 251 239 295
220 230 223 226 227 249 333 320 284 272 258 256 256 252 238 233 225 219 192 210 209 203 200 197 196 204 172 196 208 203 184 196 203 183 191 197 205 178 178 181 238 231 245 378
254 266 277 264 302 316 303 310 313 285 260 257 202 239 240 233 225 219 216 208 198 206 206 205 202 196 189 187 192 193 206 196 204 194 194 195 195 211 206 204 234 227 264 400
260 280 291 291 310 303 304 286 286 299 301 277 243 243 235 228 223 220 217 209 201 211 205 209 203 202 204 189 194 197 192 196 201 202 194 195 205 208 157 207 173 209 270 396
274 283 281 279 296 292 297 288 274 285 289 306 274 264 219 219 214 223 215 208 210 214 211 203 203 207 200 198 199 193 196 193 205 205 202 186 164 203 208 237 232 214 272 295
272 279 271 291 295 288 290 290 283 282 282 294 295 268 247 224 218 217 210 209 212 218 213 208 210 209 212 165 203 202 196 199 199 203 197 191 209 183 209 240 235 253 292 284
276 285 290 301 297 294 287 277 279 285 278 241 226 282 275 242 221 224 220 219 220 214 211 209 211 207 201 210 208 201 203 195 204 185 208 152 174 211 217 241 244 236 343 258
291 319 296 276 346 355 378 352 276 276 284 277 275 282 294 275 242 233 229 231 220 218 214 210 207 206 207 203 209 205 198 200 204 199 200 183 192 176 215 234 163 225 228 251
315 298 346 337 329 334 328 339 370 367 268 278 274 277 272 286 294 248 232 232 224 224 215 212 211 208 202 207 211 203 169 206 205 206 203 203 200 151 226 149 233 229 232 240
289 347 333 318 313 320 312 310 325 341 362 263 266 263 274 274 277 279 272 205 194 219 105 196 213 210 215 214 157 207 198 189 202 206 167 167 182 212 234 238 233 233 245 234
345 416 430 416 387 399 389 320 321 321 328 309 257 260 263 268 270 270 275 268 247 210 82 133 218 218 90 109 87 214 198 204 192 199 192 211 213 210 172 233 229 240 251 229
436 431 415 412 386 367 397 333 319 327 313 326 271 260 262 253 254 272 269 274 267 258 248 236 231 225 224 219 213 206 113 167 121 216 218 146 169 171 237 234 247 234 243 223
446 405 419 411 367 352 383 339 305 315 314 317 322 260 261 252 253 254 267 278 269 258 251 241 232 229 228 223 223 224 193 128 227 214 217 175 166 236 237 232 227 262 238 219
394 394 390 362 343 344 352 368 310 264 309 312 318 268 257 253 244 261 260 239 275 254 249 248 237 231 229 221 215 218 206 126 218 212 171 179 215 230 199 229 236 251 228 220
366 364 362 356 337 335 333 358 360 305 84 311 311 315 256 250 242 248 265 270 268 272 254 245 242 239 228 232 230 233 225 178 221 217 216 143 178 227 205 221 235 253 230 222
352 345 345 370 342 337 336 346 360 332 307 309 307 316 264 250 244 251 282 286 266 262 259 248 249 250 257 248 248 236 131 192 183 216 216 164 226 228 234 230 230 261 219 225
340 339 341 342 354 348 344 343 354 385 292 273 303 303 291 258 254 258 274 264 284 259 264 247 244 239 237 240 240 246 234 224 221 214 159 189 228 226 216 223 243 271 221 226
337 350 360 367 218 374 350 360 353 379 303 299 300 296 302 284 276 197 266 261 272 271 265 265 255 247 245 239 239 173 198 250 217 160 217 184 231 236 239 240 242 271 224 224
339 337 337 346 355 357 368 324 390 369 413 288 225 306 307 319 206 234 151 263 258 263 260 255 268 261 253 253 246 244 241 258 259 231 228 231 234 232 238 232 278 271 227 226
329 325 319 351 332 343 322 311 353 429 411 340 284 258 307 309 312 318 276 271 266 261 265 269 179 269 243 270 263 257 262 253 260 261 247 240 194 242 246 264 272 271 226 228
322 313 309 308 307 208 330 350 371 82 367 349 352 119 175 293 295 302 184 205 282 228 271 269 268 270 267 269 267 263 267 239 258 252 257 253 244 240 255 266 260 284 227 225
322 321 314 321 319 304 325 341 322 351 336 331 351 375 359 282 282 282 288 258 301 315 324 228 301 271 274 275 276 270 256 251 252 263 253 243 239 252 265 244 286 332 224 224
312 308 307 313 319 312 303 303 294 294 305 307 314 314 317 323 319 323 331 318 299 303 301 162 350 202 380 321 276 280 253 206 252 260 251 237 257 253 254 276 306 260 215 216
306 318 324 294 288 290 285 287 284 298 294 295 298 298 300 305 297 300 303 315 317 327 313 340 342 365 372 389 411 274 282 279 261 256 258 260 273 238 247 284 268 225 216 211
316 297 281 286 288 277 283 288 282 286 285 287 294 295 296 304 302 305 315 312 319 315 342 342 347 352 235 400 330 416 283 285 273 264 266 271 263 255 267 255 245 220 211 211
310 272 275 280 278 280 285 280 280 280 288 281 297 286 283 291 298 294 289 309 345 323 327 332 367 373 380 375 379 378 352 241 282 279 279 277 263 268 255 242 230 215 209 214

GFSCGP_2pvu_pres_129.txt.gz
Presure
195 195 181 200 204 212 213 218 219 217 218 231 234 224 228 65 238 248 233 230 229 236 225 222 200 212 217 212 212 191 165 172 209 211 208 180 185 179 165 207 195 170 160 143
206 209 214 222 227 229 245 224 223 237 264 306 296 343 329 307 233 290 278 264 255 247 224 221 218 218 181 181 206 203 210 214 216 214 213 188 197 193 198 195 195 173 226 218
220 217 217 221 227 259 257 220 232 251 297 293 324 329 324 305 291 278 264 266 265 243 229 223 224 220 208 199 192 200 200 195 192 194 197 187 162 201 200 176 202 201 183 165
220 237 194 204 215 246 233 271 228 287 298 286 314 314 312 306 293 276 265 251 252 243 233 224 226 217 206 206 200 201 204 200 195 197 192 193 200 193 204 209 208 210 209 221
187 194 202 209 269 233 264 289 289 292 293 298 311 292 309 76 291 278 263 251 246 240 242 241 83 218 89 212 200 194 197 204 202 194 198 195 199 199 198 199 204 201 183 145
200 194 206 248 263 279 285 280 282 281 300 304 92 116 164 276 282 285 282 259 242 239 234 235 238 226 214 210 203 199 202 203 197 199 201 203 199 204 201 179 194 205 200 219
228 202 248 263 280 275 270 282 299 305 304 299 288 270 91 160 253 279 287 282 241 235 228 231 231 230 214 215 204 203 79 205 201 200 205 206 201 204 201 208 210 201 205 213
268 263 263 270 159 282 287 309 295 289 302 355 214 263 74 69 270 78 273 287 274 237 230 226 225 217 221 215 204 211 216 209 212 207 205 209 210 205 194 201 202 194 201 213
267 280 278 289 268 302 303 300 325 339 335 332 340 315 380 273 275 92 262 273 289 260 238 223 220 221 221 216 214 212 209 211 203 211 208 210 208 205 183 206 195 178 218 213
274 286 287 296 305 300 397 395 410 331 315 313 321 324 363 347 269 268 262 267 274 282 258 233 225 220 218 214 213 215 208 209 199 203 194 203 207 202 200 204 200 210 197 215
281 282 325 300 461 466 417 405 401 425 343 306 302 309 312 372 254 267 269 263 263 269 279 249 166 226 221 222 219 213 147 126 135 169 202 184 165 203 202 174 199 206 208 188
285 318 446 471 448 434 404 381 369 327 334 352 305 301 300 326 270 265 249 259 258 259 274 274 266 96 97 225 224 217 214 150 185 201 206 209 203 203 210 182 215 160 189 145
310 422 442 417 392 417 385 377 356 327 319 349 345 306 297 308 330 262 255 241 269 250 261 270 274 280 248 182 198 218 146 210 210 122 122 199 211 211 205 216 143 173 180 182
422 400 403 393 350 267 358 349 342 338 329 324 341 304 306 307 302 254 244 242 241 261 271 269 265 270 285 262 233 220 217 215 215 214 194 119 136 210 169 225 201 186 224 216
390 384 374 370 348 344 347 365 348 375 348 182 316 316 324 291 295 263 251 252 254 264 279 272 271 263 263 269 252 239 233 232 238 236 183 208 118 135 200 226 218 209 221 223
358 358 371 351 353 336 341 344 347 283 337 319 296 322 328 311 310 132 261 257 254 246 265 265 272 265 258 271 256 246 235 126 230 223 225 220 145 223 190 176 146 208 228 236
338 361 350 346 344 336 335 344 335 330 364 337 298 308 293 259 297 295 280 174 260 258 258 266 276 268 260 256 255 242 232 224 224 217 218 217 219 231 224 217 199 179 228 220
332 338 354 358 374 365 360 339 340 323 328 349 325 292 298 286 289 290 301 212 188 262 165 254 272 273 261 256 245 245 233 232 231 226 223 225 227 219 209 220 169 201 232 225
344 334 349 334 347 290 296 325 343 364 331 355 332 296 287 298 294 159 300 143 150 163 272 264 267 266 260 254 244 246 239 182 222 234 238 234 240 227 224 225 187 217 229 238
332 333 325 321 324 317 319 324 320 348 347 331 374 308 292 292 296 309 127 304 306 291 285 280 256 245 266 256 248 243 243 244 240 241 243 248 234 224 201 188 224 228 227 228
322 324 313 305 309 308 310 323 174 349 327 348 178 337 304 294 228 304 302 295 301 120 295 293 281 261 263 252 263 251 248 237 239 235 230 212 237 235 221 170 228 228 195 213
320 320 319 315 314 308 314 323 324 334 328 324 325 346 329 308 305 287 277 280 282 283 294 297 306 238 251 276 282 269 268 251 244 240 241 239 228 236 242 255 231 232 238 245
328 315 307 307 315 322 293 306 311 305 298 300 311 318 346 302 305 294 266 278 273 163 152 303 206 176 328 344 338 288 281 288 262 251 251 249 250 243 251 269 267 244 246 221
303 309 321 308 297 289 301 291 293 285 290 295 304 305 307 320 322 311 298 288 292 295 300 308 312 327 373 227 306 348 365 310 294 290 278 275 270 274 274 274 266 195 264 258
319 311 294 295 286 294 282 282 281 287 279 284 289 288 289 298 297 303 311 317 322 327 332 287 283 331 340 337 353 385 377 409 441 288 289 291 273 272 268 243 266 259 235 233
309 288 280 291 291 273 267 281 280 288 284 285 285 277 284 277 283 289 294 299 319 309 312 317 317 394 336 341 377 387 227 334 420 408 287 299 272 265 261 264 256 251 240 242

GFSCGP_2pvu_pres_132.txt.gz
Presure
206 202 205 207 208 206 202 212 203 176 211 110 227 230 224 222 230 81 256 229 217 217 223 225 217 209 215 214 235 209 218 180 197 167 167 190 177 167 180 198 172 214 173 202
187 198 204 205 206 206 210 217 219 218 215 217 211 235 215 175 65 232 266 243 243 266 259 256 243 241 238 230 218 214 216 216 191 211 169 178 179 180 172 173 225 189 198 208
199 199 198 201 208 213 215 219 222 220 206 208 197 203 210 215 250 283 329 268 270 328 314 281 282 252 243 227 230 230 231 216 195 201 203 200 203 204 214 208 189 186 200 181
201 208 210 206 213 223 222 216 239 221 191 186 197 212 108 289 305 320 309 294 313 309 302 289 292 288 270 255 247 240 239 216 192 207 200 198 183 194 205 199 201 190 197 191
216 217 228 232 208 226 215 218 208 213 218 224 210 215 291 88 296 299 298 282 291 297 294 296 274 274 271 264 263 248 238 220 216 213 200 193 195 190 190 193 194 192 200 184
213 210 213 209 211 214 214 202 206 225 261 280 289 290 227 230 320 167 283 184 283 280 302 286 270 268 263 258 167 240 229 219 215 213 205 207 199 193 195 195 201 194 207 197
219 221 220 224 214 221 181 229 222 246 283 286 217 301 69 152 112 106 125 163 277 273 289 287 266 260 256 250 246 231 226 216 215 211 206 208 207 194 200 197 201 195 200 200
226 226 229 259 271 238 233 281 285 292 293 300 313 318 313 86 80 73 80 172 282 276 273 279 275 261 256 245 239 235 231 226 223 209 95 209 194 202 203 199 198 193 174 214
231 221 230 281 276 284 282 254 288 286 305 317 310 305 377 373 366 351 90 275 288 281 277 271 287 270 253 240 234 235 227 231 225 218 210 210 194 203 207 200 199 207 206 211
242 247 291 295 288 281 283 290 302 317 321 394 388 345 399 408 346 327 356 402 275 283 278 270 276 292 257 241 232 228 226 231 227 222 216 209 205 207 207 209 197 205 163 177
276 300 282 228 296 298 300 319 422 458 396 396 410 332 336 361 337 318 304 343 276 269 272 270 269 276 271 247 234 225 221 229 223 224 219 213 205 205 215 205 203 202 213 207
287 275 278 292 308 327 410 437 421 411 377 355 365 340 323 332 311 336 278 275 270 268 265 268 270 283 290 177 136 228 225 226 227 221 216 217 213 213 214 201 195 201 210 200
273 282 292 317 319 435 408 392 407 374 355 339 338 352 342 333 310 313 275 255 276 252 248 254 263 272 286 270 246 205 94 224 228 219 95 216 111 201 205 202 206 203 211 167
282 293 311 365 387 383 398 383 379 363 349 338 333 328 339 322 324 287 285 266 254 264 245 241 257 271 274 278 266 244 235 229 222 216 157 128 166 158 207 153 205 128 209 204
301 290 397 398 396 365 361 361 385 361 348 352 334 336 331 320 299 310 267 263 260 247 246 245 255 263 259 269 271 252 247 238 229 223 219 215 217 202 209 124 201 209 216 209
288 392 375 372 362 360 352 353 343 366 343 350 337 333 317 304 178 283 295 280 271 246 252 251 250 244 247 256 267 273 280 250 236 230 227 221 221 218 136 158 123 218 215 209
386 364 357 377 362 356 343 348 345 343 332 332 312 330 315 292 282 241 283 297 297 264 260 261 252 247 273 285 271 271 262 278 269 255 239 228 223 221 219 219 212 235 186 216
381 352 361 361 365 371 330 334 369 351 348 333 391 339 338 303 283 282 280 285 303 283 264 145 209 251 258 259 258 264 263 254 264 268 253 245 244 240 238 198 192 130 227 213
354 342 343 346 337 326 328 326 340 359 376 332 352 324 309 319 287 288 288 296 289 297 153 155 260 250 263 259 249 256 254 258 253 261 251 243 239 239 238 233 211 228 178 232
339 334 331 324 319 310 315 321 331 337 343 347 324 377 309 299 309 309 294 209 219 184 143 201 262 255 190 197 243 259 251 251 251 251 249 242 226 234 227 226 220 226 233 228
334 327 313 318 309 315 318 319 339 343 342 274 91 90 334 309 303 296 289 295 311 253 302 308 295 250 262 256 231 274 258 248 250 250 236 242 235 234 230 228 177 226 227 226
334 321 320 317 318 305 306 313 320 310 317 320 326 326 322 366 321 307 292 286 285 283 290 299 279 294 300 293 222 235 251 256 194 219 126 231 245 237 238 238 235 230 229 236
315 335 308 322 307 303 303 306 304 301 305 303 302 308 331 311 350 330 308 299 106 282 285 300 296 293 291 292 297 291 289 258 262 250 255 259 254 245 246 245 254 253 236 217
324 301 316 322 317 295 290 300 295 293 289 285 298 300 308 307 312 320 325 328 325 135 180 321 330 175 290 206 216 282 247 258 327 285 275 262 170 257 253 250 249 237 248 237
310 319 316 304 296 292 302 295 290 284 290 285 286 288 285 285 293 295 303 313 321 326 249 337 298 329 320 320 281 325 285 252 340 249 288 301 268 260 255 250 254 241 229 232
304 302 294 290 290 298 297 274 280 272 282 282 284 287 279 274 280 289 288 287 293 299 310 322 325 354 358 354 356 357 363 243 380 382 262 237 291 288 269 258 251 245 247 242

GFSCGP_2pvu_pres_135.txt.gz
Presure
200 204 201 205 203 192 214 214 209 177 205 208 209 214 214 217 222 220 217 213 211 211 215 223 250 234 238 272 276 261 217 215 206 204 202 200 167 173 169 205 192 182 191 181
193 204 207 204 204 212 214 207 202 197 203 213 209 215 212 211 220 221 219 79 194 240 221 199 205 222 227 220 250 246 237 238 232 223 220 200 195 209 178 165 170 170 186 194
211 212 210 211 203 209 215 204 203 203 205 211 216 225 233 233 222 225 230 216 204 197 191 200 207 222 241 261 262 247 233 250 242 221 237 203 211 190 204 197 172 166 190 187
222 210 209 214 210 215 223 217 214 212 208 219 224 223 217 185 211 219 211 201 207 207 216 282 297 308 262 266 261 258 242 250 243 243 227 168 215 179 200 205 202 187 173 175
207 235 187 199 226 214 219 239 237 224 227 221 220 244 247 232 191 180 241 242 231 238 296 290 320 301 324 322 325 304 280 261 253 253 242 210 195 212 216 200 207 208 193 183
225 194 220 212 208 223 231 232 232 227 224 219 228 242 248 76 83 269 297 249 290 296 302 300 245 304 302 314 310 308 288 280 265 198 255 233 223 223 218 203 194 195 215 205
214 200 217 179 209 194 227 239 224 229 232 237 278 177 276 288 68 303 80 249 262 124 139 302 200 296 291 296 297 297 273 281 256 263 257 253 241 231 220 203 199 205 197 187
181 207 204 238 233 187 235 225 230 242 240 248 298 286 285 288 166 299 283 85 116 85 296 299 300 300 292 285 287 279 266 264 252 253 258 250 241 237 223 210 204 201 202 196
222 220 235 237 197 240 245 247 252 287 294 297 293 302 295 310 323 326 328 337 311 344 366 97 96 305 274 282 276 268 265 253 247 255 249 252 249 233 218 208 205 204 199 196
228 226 245 233 238 248 245 250 291 291 293 296 311 328 335 366 419 418 442 410 286 360 348 242 293 277 277 272 271 274 261 251 248 246 256 246 236 233 224 214 213 204 201 204
232 236 243 240 248 246 255 296 158 114 308 316 355 424 410 395 373 359 385 368 340 333 331 345 277 273 269 276 274 290 259 250 248 247 247 240 234 233 221 213 215 208 199 206
238 245 251 261 270 296 297 297 317 336 427 357 378 374 397 370 350 348 377 308 290 299 340 306 272 261 253 257 276 292 265 255 251 243 237 237 230 227 231 224 221 215 209 202
254 267 281 291 285 303 296 322 333 407 414 393 375 372 387 351 343 355 324 312 311 293 252 273 260 268 267 256 265 272 289 261 253 243 235 235 236 226 229 222 222 218 215 201
269 281 282 296 292 312 311 411 403 399 401 375 358 365 394 330 320 334 293 286 284 293 259 245 236 257 257 269 271 265 271 275 252 236 193 231 224 228 205 223 170 216 213 184
274 287 284 304 314 345 403 378 380 373 392 372 361 352 348 329 311 308 275 274 269 266 275 240 235 231 235 238 249 274 265 267 268 252 244 233 224 223 232 176 222 223 218 218
276 287 305 297 382 398 380 369 369 363 346 391 355 342 356 326 323 279 273 270 276 255 259 261 248 253 241 257 257 281 277 259 265 254 247 241 234 224 222 221 125 218 213 214
291 295 287 386 385 400 366 371 359 362 332 337 362 323 338 360 324 288 269 265 162 252 266 267 254 248 247 238 247 236 279 259 262 267 249 237 233 231 224 216 215 122 166 122
287 284 378 369 364 376 360 344 342 356 372 339 353 326 307 335 309 293 280 277 262 265 248 249 262 189 201 250 262 264 262 261 267 266 258 248 239 234 230 227 223 219 179 125
278 375 358 351 353 338 341 335 330 334 339 360 359 350 321 314 300 303 276 274 272 265 258 266 271 249 241 239 246 248 229 263 259 256 265 266 256 245 237 233 227 225 222 212
371 364 349 330 332 335 318 319 339 355 327 364 368 334 328 370 334 289 299 284 270 275 273 282 262 176 163 176 244 246 168 264 288 299 266 265 265 274 253 244 239 235 235 125
368 351 333 331 320 313 319 324 332 336 346 333 337 343 238 346 340 302 292 292 309 295 276 220 180 151 260 255 261 163 262 153 232 240 251 263 255 259 267 259 259 251 244 240
349 344 335 326 323 325 316 319 322 312 316 316 328 334 346 337 401 326 302 292 289 291 301 144 289 315 291 267 255 250 257 239 263 255 230 256 261 259 259 263 269 257 252 249
345 337 328 319 331 318 310 305 316 310 301 261 308 315 325 337 349 334 317 295 269 286 294 294 291 306 311 305 279 277 273 253 252 239 277 253 259 263 125 264 224 256 249 247
324 328 315 322 333 305 296 309 294 298 292 306 294 294 297 296 307 310 330 328 312 312 305 280 270 286 294 294 289 307 253 270 238 279 264 260 270 265 153 266 267 255 250 247
320 313 316 322 314 304 306 295 295 293 298 292 286 286 286 287 287 292 298 304 309 319 332 340 327 320 293 302 304 219 264 333 367 224 229 240 286 274 263 251 267 266 250 242
313 302 318 303 303 292 304 289 280 273 278 286 281 285 279 273 274 283 291 291 292 299 302 306 210 317 326 333 343 356 213 320 296 414 386 293 242 244 251 278 268 276 266 257

GFSCGP_2pvu_pres_138.txt.gz
Presure
203 120 210 189 182 195 195 199 205 210 216 216 176 201 199 217 217 205 193 181 209 208 211 218 225 236 241 244 255 270 248 247 225 239 214 243 217 213 209 214 219 203 197 202
153 213 201 220 203 186 207 194 203 211 217 222 216 211 200 209 214 212 210 189 210 215 225 229 228 232 230 230 234 227 218 213 194 194 200 206 242 236 229 195 204 227 225 190
180 182 167 204 232 184 231 182 215 231 210 221 221 215 223 227 233 229 223 221 216 222 220 216 222 222 234 227 229 218 215 190 195 217 200 240 242 246 207 203 188 211 194 186
214 210 204 210 173 199 244 211 250 199 246 249 257 223 122 201 220 228 232 238 235 233 237 247 241 239 252 215 203 238 210 242 238 269 253 239 243 220 204 178 198 213 198 191
214 201 194 222 213 193 181 175 234 183 197 207 242 201 80 184 200 211 63 229 231 233 175 247 245 238 301 291 277 267 224 250 296 298 288 236 199 305 194 230 196 189 185 239
221 212 222 215 193 227 208 221 196 234 188 200 91 116 207 77 129 208 218 228 184 231 231 257 273 294 293 292 282 287 292 294 300 271 234 217 196 229 218 217 201 192 189 174
209 212 207 208 202 224 225 229 221 227 217 213 244 139 172 248 206 69 68 88 274 197 294 129 210 288 268 290 289 282 254 285 290 301 299 221 282 188 195 203 219 217 207 194
209 185 178 204 211 182 230 241 227 239 237 239 237 245 253 264 261 139 281 155 309 302 272 90 156 295 105 193 259 276 319 318 316 318 295 280 277 316 257 269 263 232 212 210
190 213 213 218 221 206 226 233 238 240 252 264 269 267 253 304 308 304 105 316 323 321 318 323 327 83 321 96 275 255 254 253 256 288 297 285 246 274 278 277 283 265 228 210
184 200 236 235 240 254 248 254 249 272 252 271 271 294 301 298 306 322 391 417 457 441 476 438 368 425 318 139 297 301 281 273 273 298 301 272 274 245 267 265 275 245 243 222
194 172 201 276 273 239 256 264 256 274 284 297 304 298 306 320 366 431 310 411 395 390 389 415 371 321 338 367 299 279 288 282 269 273 286 276 273 255 252 248 260 252 245 230
233 262 265 275 272 266 268 276 287 295 96 296 303 304 104 404 407 417 378 366 366 345 337 358 329 297 273 312 290 276 278 268 260 267 275 279 266 263 258 251 252 249 236 228
279 274 266 274 278 281 277 280 287 292 285 79 225 154 395 381 375 363 341 330 311 311 304 296 304 260 240 233 272 255 260 240 258 259 271 271 260 254 251 249 247 249 244 234
266 272 272 266 264 267 278 282 289 316 309 405 392 403 386 367 375 333 332 309 298 285 298 322 279 248 234 242 250 257 257 250 259 272 267 271 258 250 252 246 243 241 126 227
258 258 258 268 271 277 279 302 306 413 399 392 360 382 389 350 356 333 332 294 287 291 279 278 270 257 252 238 239 259 253 266 256 264 266 277 252 253 249 243 244 238 225 229
255 261 267 276 287 291 294 425 394 382 377 369 350 364 350 346 339 314 290 284 301 288 285 270 265 248 237 239 254 235 263 254 256 260 271 277 268 250 245 239 235 238 230 223
256 257 282 283 288 292 401 399 380 355 348 402 347 355 374 349 330 302 292 141 296 279 265 273 257 237 255 246 254 239 246 249 267 245 263 255 255 261 250 242 234 233 235 219
264 279 279 288 282 393 368 354 343 341 353 365 357 356 356 343 319 308 285 277 294 282 262 271 264 249 166 242 256 234 241 230 238 236 250 256 255 265 265 248 238 233 224 217
272 280 279 283 369 359 342 336 328 333 347 336 344 357 380 363 342 293 286 271 283 283 265 273 252 266 252 264 245 243 216 240 236 246 245 254 263 254 265 266 245 235 228 222
275 275 267 373 355 348 329 324 317 336 340 340 353 356 359 345 332 335 290 280 275 261 267 273 247 261 246 109 145 260 246 244 248 235 253 235 259 265 256 266 254 244 235 229
269 260 373 351 342 335 321 311 318 343 323 327 322 330 333 343 336 351 312 286 270 281 262 266 269 257 265 254 248 194 254 172 171 210 269 268 285 264 270 261 263 257 244 237
254 287 356 359 342 313 336 321 334 311 324 312 326 325 326 331 356 316 384 298 286 268 279 261 268 226 266 251 257 160 258 263 269 222 206 192 221 237 272 278 264 261 260 246
278 353 331 341 332 330 320 313 312 298 301 308 309 307 310 310 314 328 330 346 291 277 272 274 265 270 251 143 129 140 161 252 260 251 269 246 236 202 111 248 288 262 276 265
283 357 326 331 331 339 318 300 284 306 284 290 290 292 295 293 293 292 302 315 332 315 310 279 260 263 251 259 252 252 263 246 241 256 254 247 220 242 245 103 219 278 278 274
279 347 323 316 335 328 315 306 304 290 285 282 279 287 285 287 284 286 292 296 304 317 329 296 297 291 269 224 264 273 268 237 272 272 280 223 296 259 252 250 249 274 249 273
301 341 322 318 315 294 308 302 270 276 277 288 283 273 278 276 272 286 288 294 292 294 315 325 331 341 335 330 349 324 358 321 314 282 368 395 419 338 316 221 319 257 252 263

GFSCGP_2pvu_pres_141.txt.gz
Presure
183 210 213 197 195 200 165 163 182 218 203 215 203 188 188 204 193 209 216 219 221 219 217 210 212 218 219 205 201 222 217 218 233 231 204 202 210 204 204 212 228 227 231 216
167 194 197 213 203 195 165 209 177 183 199 195 222 197 182 218 186 226 217 242 235 221 225 215 228 224 237 242 241 240 239 231 233 234 224 235 245 240 232 243 242 201 200 217
205 193 191 181 137 202 197 171 211 203 170 188 161 179 185 216 215 243 209 246 254 255 210 210 216 217 221 227 212 234 215 235 241 245 206 240 215 212 215 207 187 199 191 202
239 199 196 204 183 174 222 232 193 216 187 221 227 193 117 181 182 220 107 241 228 233 246 195 198 203 207 211 219 226 229 171 116 240 254 256 211 209 200 187 183 225 194 190
203 226 254 190 230 208 224 202 227 231 205 216 194 205 81 89 97 182 236 184 179 228 196 103 236 208 207 209 212 226 225 162 238 245 264 259 295 245 193 256 267 187 185 193
212 212 210 210 206 220 221 220 228 224 204 208 222 224 120 206 135 110 188 233 196 188 235 240 143 235 246 239 239 248 306 130 289 284 283 294 296 315 218 247 206 201 253 198
214 197 215 199 205 209 232 231 210 211 236 183 217 220 216 237 178 240 251 237 179 149 158 255 262 266 288 275 262 303 294 291 288 290 293 248 227 283 245 241 309 203 213 226
203 200 223 204 224 210 221 235 235 224 232 216 195 215 284 242 270 283 258 289 269 287 293 161 216 108 277 83 88 109 111 277 114 306 212 239 223 230 256 221 227 242 201 189
201 200 209 145 192 213 235 251 248 217 240 265 222 270 283 277 283 282 287 287 60 103 306 306 322 320 310 317 288 304 286 92 101 245 257 258 247 245 264 241 208 222 222 230
193 145 192 208 166 240 177 237 235 166 201 229 296 282 283 282 285 283 296 305 134 324 326 342 381 444 410 309 260 318 298 276 272 106 263 257 264 240 310 307 239 221 226 223
220 193 216 176 227 218 213 279 238 297 291 284 283 283 282 279 283 297 303 309 316 321 413 391 384 365 292 370 435 336 317 199 243 264 261 249 262 253 277 290 293 279 238 230
198 254 235 244 227 261 296 293 290 283 276 281 285 276 291 299 299 311 306 331 377 376 363 363 348 327 352 357 341 347 327 293 281 287 275 266 254 266 260 280 265 276 285 255
231 242 251 280 304 293 286 278 275 279 276 272 289 298 305 311 305 393 400 365 358 350 344 337 321 303 287 290 295 272 324 341 299 280 276 265 257 254 266 282 277 275 267 243
262 275 292 287 285 275 269 270 271 271 277 290 301 301 299 397 413 383 386 358 345 323 315 314 304 282 280 281 277 266 260 337 294 260 283 279 271 265 268 274 269 270 263 252
284 280 278 271 265 260 260 266 275 287 297 301 295 388 379 385 397 363 363 345 316 308 302 306 288 273 260 263 255 252 255 249 269 274 278 271 263 258 264 235 272 271 262 254
276 269 261 256 256 263 267 267 289 294 293 391 385 382 374 367 383 346 347 330 306 295 299 293 283 276 261 247 264 251 237 238 270 255 270 256 252 255 256 255 271 264 255 254
262 255 249 258 260 269 268 284 292 283 368 366 363 386 370 370 367 349 345 305 298 295 279 292 271 275 264 253 262 236 237 231 251 232 232 240 240 256 257 261 269 264 252 250
250 255 255 259 275 275 282 284 301 362 348 346 367 349 353 364 356 345 316 307 293 286 276 297 269 263 264 250 245 239 242 242 247 235 250 245 247 249 263 263 263 272 259 248
253 251 264 271 268 277 277 351 356 349 339 353 350 355 362 368 361 359 284 303 297 284 275 296 271 259 258 249 248 249 238 239 246 200 250 255 257 260 257 256 257 273 269 258
260 271 271 265 277 269 371 357 341 328 345 343 335 333 336 340 342 354 277 265 296 284 278 270 277 259 265 250 241 251 239 240 237 255 246 243 253 263 250 253 259 257 266 274
270 266 265 276 268 349 366 340 334 330 332 316 320 323 334 334 353 344 357 279 293 271 287 277 284 271 250 258 249 243 265 250 251 252 239 258 244 253 237 248 252 263 267 265
262 260 270 269 313 386 353 339 340 325 325 313 324 316 315 320 329 311 327 339 281 273 292 254 285 269 265 259 252 259 246 251 256 271 229 264 250 244 244 264 260 257 265 276
259 269 265 254 365 346 341 339 322 308 294 303 307 302 304 306 306 306 313 323 275 308 247 287 276 273 261 272 248 262 260 249 147 143 236 275 267 256 263 262 261 262 275 256
267 265 249 298 357 348 353 321 311 304 304 297 295 273 288 287 282 288 291 296 287 312 294 249 251 239 266 264 265 265 265 128 247 183 250 273 261 254 261 280 240 250 156 251
265 257 261 321 345 352 331 313 307 299 292 291 287 278 269 289 284 287 287 285 288 297 305 298 264 272 275 272 261 260 259 202 270 254 258 251 267 195 259 263 247 218 257 258
259 250 271 307 336 337 312 317 306 288 290 276 282 280 273 276 274 275 281 288 298 300 298 306 322 276 260 263 279 253 222 263 256 265 252 260 283 267 224 298 290 230 272 289

GFSCGP_2pvu_pres_144.txt.gz
Presure
166 169 170 181 165 159 185 176 180 201 190 202 186 204 201 217 212 189 182 212 219 237 206 180 226 193 178 222 227 233 229 232 221 198 219 214 213 206 202 201 201 202 202 203
170 169 193 193 209 216 173 198 191 179 200 210 177 233 220 202 206 217 208 189 173 205 198 195 254 224 236 228 79 237 235 232 222 237 217 230 238 190 186 196 200 201 207 215
180 182 201 193 168 175 177 177 187 204 194 204 223 175 210 185 203 204 205 223 230 210 193 215 217 201 195 201 91 235 246 163 230 224 230 232 238 239 241 238 213 215 220 228
196 174 178 158 165 180 163 188 175 223 187 217 184 189 185 170 206 254 194 145 221 223 215 199 195 217 224 187 243 195 186 247 234 212 223 235 243 233 236 238 230 228 252 211
205 199 186 195 176 229 176 180 202 187 215 203 199 220 199 197 86 82 240 193 192 111 96 133 231 211 96 239 215 206 236 212 220 203 232 224 223 228 234 235 258 233 250 247
181 202 227 195 248 210 168 184 168 222 206 209 211 201 219 73 135 243 255 244 239 205 194 229 202 214 216 226 204 239 233 205 239 205 216 218 240 250 228 253 243 298 265 302
206 192 162 215 183 195 204 204 216 219 212 212 202 214 209 127 249 185 278 284 254 209 218 253 223 219 264 241 225 256 256 257 217 255 273 269 167 271 256 259 306 179 188 252
194 169 198 209 192 153 144 198 188 197 194 194 204 214 235 261 229 238 96 275 264 304 277 305 302 120 142 271 264 267 266 270 269 109 171 276 280 285 318 303 272 257 198 227
167 182 185 192 194 210 208 190 212 163 196 158 185 260 268 248 290 275 303 283 305 94 301 300 302 93 292 206 245 298 87 204 153 97 141 171 155 233 128 192 127 240 266 307
201 195 182 196 143 189 180 199 193 216 148 196 237 277 273 310 301 303 300 294 295 296 293 295 299 178 312 317 330 343 350 339 325 283 273 192 229 99 109 245 238 238 239 210
185 179 187 185 203 206 149 140 181 228 237 249 238 311 302 298 295 293 291 286 285 293 301 321 333 332 329 393 399 388 413 333 409 306 266 293 249 249 155 241 247 253 244 250
191 192 199 198 200 206 212 204 208 244 288 303 301 288 289 287 281 286 293 294 325 318 307 316 370 382 382 360 343 347 362 351 367 321 288 273 257 259 267 249 236 255 223 219
184 200 189 197 203 205 200 237 251 284 296 286 287 164 118 111 80 293 326 306 231 404 379 375 372 367 343 335 335 342 340 352 364 276 280 265 259 269 256 251 262 250 254 264
226 191 225 204 202 230 241 268 283 280 284 279 269 278 284 304 316 309 343 410 405 375 350 352 352 334 327 321 305 307 303 312 353 306 268 268 248 260 260 251 263 242 251 247
254 256 212 251 234 270 275 274 279 278 272 271 277 289 305 302 339 392 385 373 388 354 341 338 329 315 315 302 290 295 284 273 304 277 278 267 252 264 250 266 273 250 246 247
260 257 247 283 277 268 280 277 272 267 272 278 302 295 291 387 401 388 364 395 370 345 339 334 316 306 298 287 282 283 287 284 285 277 281 262 246 247 263 260 249 244 243 256
257 274 252 262 260 270 266 265 266 268 289 294 293 287 375 382 369 373 349 377 363 338 328 311 303 299 286 289 234 276 271 265 264 263 329 271 258 264 260 242 242 250 255 264
268 262 258 253 269 259 262 260 273 287 284 290 299 363 367 368 369 362 366 364 356 345 317 303 300 293 287 280 264 265 264 249 258 249 253 250 259 271 261 260 260 263 263 253
251 252 262 259 253 258 256 277 282 286 278 351 360 365 352 344 346 346 349 374 332 340 307 298 295 288 278 273 261 264 273 262 249 248 240 254 249 248 255 257 244 254 260 256
249 246 252 248 251 262 286 279 280 275 359 338 349 330 330 330 332 335 327 333 334 367 295 289 293 289 278 269 270 263 264 248 262 250 236 239 258 254 240 238 243 250 250 253
244 244 248 251 255 279 280 271 267 378 361 357 332 322 320 324 326 335 314 317 317 302 262 291 289 262 281 271 260 260 273 246 261 260 241 242 251 244 241 243 249 253 259 261
244 244 247 245 272 275 272 264 378 343 345 338 334 325 324 317 313 314 309 301 327 321 265 272 252 276 273 273 260 250 265 243 252 253 263 257 233 239 250 248 252 248 259 263
242 248 241 270 271 277 259 294 355 368 341 322 315 303 290 304 304 297 305 298 313 285 305 263 251 283 260 277 269 247 259 257 246 247 253 239 242 255 253 254 254 257 251 250
241 247 274 264 268 264 272 296 373 343 324 299 304 306 296 282 290 289 290 288 285 310 303 314 263 252 257 280 249 263 263 260 266 245 247 244 152 247 202 256 251 250 269 262
237 269 264 264 266 252 285 359 350 338 300 310 303 289 284 276 282 281 283 285 286 293 300 309 307 270 251 255 287 238 260 265 264 235 211 262 264 263 263 264 264 273 219 134
274 271 262 266 257 261 288 351 340 320 316 297 299 289 281 278 286 276 283 281 283 288 294 296 293 315 318 308 274 291 268 260 248 252 269 256 243 271 277 274 273 209 278 284

GFSCGP_2pvu_pres_147.txt.gz
Presure
185 184 168 163 190 155 189 155 199 170 203 206 194 179 175 160 204 198 190 201 212 199 128 201 196 223 215 206 193 210 204 226 222 215 222 209 230 212 233 223 206 198 207 207
155 166 186 197 176 165 182 200 163 200 172 178 201 210 208 186 181 167 158 221 194 228 214 242 208 186 200 203 203 204 210 231 234 262 229 232 240 241 234 231 223 207 208 208
182 171 177 138 183 181 160 186 170 179 180 183 217 204 196 161 198 216 171 191 229 214 208 204 211 200 225 196 209 222 188 113 129 117 211 217 215 217 249 242 237 234 238 234
151 175 181 156 217 194 205 182 176 195 184 188 221 168 194 210 189 163 195 188 207 220 186 136 217 237 202 203 192 201 204 229 207 208 204 197 170 224 215 208 198 221 229 225
174 148 189 197 179 190 199 174 179 189 195 186 167 186 138 217 216 195 208 155 134 197 195 221 218 187 189 227 238 197 200 230 248 220 197 234 234 221 240 192 217 193 241 239
202 178 205 167 207 234 203 197 170 185 203 158 213 187 140 229 208 190 214 153 202 208 200 201 241 244 115 235 239 266 243 269 229 229 201 198 231 232 236 213 208 221 236 217
199 190 203 224 219 210 181 213 197 208 206 190 213 184 186 214 187 148 73 195 203 204 218 220 240 252 265 238 292 279 275 259 241 234 202 243 196 237 249 215 240 220 252 248
179 201 191 195 186 193 184 180 205 200 161 201 190 202 189 196 190 208 210 207 223 108 222 283 298 316 313 253 181 294 292 84 243 278 263 249 235 246 254 121 254 258 253 269
195 192 205 211 198 212 148 180 202 180 196 183 182 193 213 225 181 199 163 214 245 274 296 334 330 326 149 318 316 75 164 182 249 276 190 274 273 110 258 249 103 274 207 246
206 189 170 188 184 201 193 198 158 177 198 201 210 190 199 215 213 216 211 250 284 313 310 307 301 292 298 304 301 302 246 247 318 307 212 280 279 279 270 140 263 178 274 122
199 182 185 196 167 188 162 210 158 195 186 189 200 200 227 213 215 222 269 306 305 305 295 292 296 303 306 332 322 341 338 337 337 271 360 320 302 289 273 185 277 289 260 239
201 132 177 187 163 175 189 213 182 151 188 190 194 202 208 209 268 266 299 299 295 291 301 318 327 316 317 355 399 403 371 372 363 401 396 337 335 318 309 274 278 264 244 228
163 202 201 216 195 145 144 169 188 191 194 236 255 255 231 288 303 300 255 86 292 309 319 214 436 388 374 377 362 360 348 348 337 346 324 363 333 349 271 279 267 262 247 238
245 218 230 246 254 226 183 249 226 218 241 258 269 271 281 294 295 289 288 305 324 310 406 418 429 366 351 357 349 323 338 331 330 348 330 340 319 255 248 268 250 260 258 251
294 277 276 260 255 240 267 255 255 252 264 278 274 279 291 285 281 283 315 305 368 395 392 399 378 341 341 344 315 325 314 286 312 328 333 330 261 264 250 269 268 253 262 242
255 279 261 246 252 259 253 249 273 273 274 270 278 281 277 277 301 318 295 401 385 386 390 407 358 330 332 311 304 304 309 304 307 312 327 320 275 258 248 260 250 270 261 239
273 260 271 272 267 262 264 262 263 262 268 274 274 273 280 310 300 320 389 384 382 398 374 392 347 335 315 301 308 300 275 287 292 313 275 265 256 243 265 250 243 261 254 246
258 253 247 258 255 255 257 258 258 261 271 265 268 295 300 288 356 355 361 357 348 366 379 382 341 312 306 292 295 281 282 272 285 295 263 263 248 260 249 240 241 254 250 263
262 261 253 258 258 255 251 249 258 265 262 265 292 291 278 351 352 344 342 333 327 345 385 361 338 310 300 291 291 283 258 267 277 256 280 278 278 255 254 232 249 249 229 234
254 257 262 257 246 248 251 257 255 256 259 283 286 276 364 349 334 334 336 331 324 348 381 360 332 302 305 291 289 269 263 266 271 269 273 255 243 244 250 252 250 250 228 235
259 255 252 250 247 245 243 253 257 255 290 282 270 343 347 338 324 314 319 313 314 316 327 342 279 297 285 287 281 280 259 263 277 249 265 245 261 261 260 252 248 247 240 242
253 248 245 243 242 242 246 250 257 282 281 263 292 359 343 330 319 303 310 297 293 301 313 310 305 309 297 277 291 272 283 277 250 258 264 258 252 247 253 261 251 242 251 249
239 238 240 244 243 243 242 244 279 278 260 290 375 352 336 309 305 292 293 287 289 291 295 293 311 308 290 266 256 272 275 262 273 259 256 250 255 249 255 262 240 252 239 242
238 238 243 243 244 243 254 282 275 265 267 290 361 319 327 313 295 294 283 281 278 283 289 285 294 290 303 280 280 279 272 267 249 267 267 284 264 257 260 254 251 246 249 252
233 239 237 242 243 248 283 272 269 258 266 301 350 329 316 305 294 281 284 284 285 283 285 287 287 300 297 304 287 294 280 236 269 257 273 258 271 281 253 251 153 153 163 267
235 238 247 245 247 281 273 270 255 256 269 297 345 318 314 307 297 288 275 283 289 286 286 287 289 290 294 304 303 307 280 264 289 268 266 265 249 257 262 281 263 159 258 252